GFSMA_500_spd_042.txt.gz
Wind_Speed
17 16 13 17 19 15 18 22 22 20 19 16 11 10 10 11 14 11 11 12 13 13 16 20 21 25 28 30 31 33 34 34 36 39 40 41 41 40 41 42 44 45 45
19 19 16 16 18 15 21 24 21 20 18 16 14 12 11 15 17 15 14 14 16 16 20 23 22 24 29 32 34 36 37 39 40 41 44 45 44 44 44 44 45 46 47
23 18 15 18 16 21 24 19 20 18 18 16 18 16 15 15 18 19 20 22 24 26 27 30 29 30 35 38 40 43 44 45 46 47 50 50 47 46 45 45 46 47 49
21 18 16 17 24 23 19 19 19 20 19 19 18 18 19 19 21 23 25 26 29 30 31 34 38 40 42 42 43 48 52 53 51 54 58 53 50 47 46 47 49 50 52
19 19 21 22 19 18 18 18 22 21 20 20 20 22 23 24 26 26 26 27 28 31 35 40 40 42 47 48 49 53 52 54 54 59 56 54 50 47 48 49 51 54 57
19 17 16 17 18 19 19 21 21 21 21 21 23 23 24 25 25 28 29 29 31 37 40 41 42 48 48 52 50 52 53 57 61 57 56 53 50 49 50 53 55 56 58
15 15 17 21 21 20 21 20 20 21 23 24 24 25 26 27 28 31 32 30 34 39 42 44 46 50 50 48 52 55 60 63 60 55 55 53 55 56 58 60 60 61 63
16 19 20 17 18 19 19 18 21 26 27 27 27 31 33 32 32 31 32 35 39 40 43 42 48 50 51 51 58 61 65 59 54 56 56 56 59 62 63 63 65 67 68
17 16 16 17 19 20 20 23 26 28 28 31 34 37 37 38 36 37 37 40 43 43 44 45 47 50 51 56 59 63 62 60 59 60 61 62 64 64 65 67 69 72 73
13 14 16 19 20 19 20 23 24 26 30 31 33 36 34 30 30 33 37 40 42 45 51 55 56 55 56 60 58 60 59 57 58 59 64 64 66 67 69 72 74 77 78
12 17 19 22 21 18 19 20 23 22 25 26 25 31 33 36 35 38 40 44 46 49 51 50 53 56 57 58 58 59 57 56 57 62 64 67 69 71 73 74 77 80 81
12 16 19 21 19 21 20 19 26 31 26 25 27 32 35 36 37 39 41 43 45 49 51 53 55 58 59 60 60 57 55 57 59 63 67 70 73 76 79 80 83 84 85
14 21 24 25 19 21 19 20 24 24 27 31 32 34 36 36 38 41 43 45 49 51 52 55 57 58 59 60 58 57 60 62 64 67 70 74 78 82 87 88 88 88 87
25 26 27 31 29 24 21 20 24 25 30 34 35 35 37 40 43 45 48 52 53 53 54 55 58 59 59 58 59 61 63 66 68 71 74 78 82 87 90 91 89 86 81
16 25 22 30 28 22 24 21 24 28 33 36 35 36 39 43 45 48 52 54 54 54 55 56 58 59 58 59 60 63 65 68 71 74 76 80 84 88 91 89 83 79 72
24 26 19 24 27 21 25 23 28 33 35 36 38 41 43 46 49 51 52 55 56 56 55 56 57 58 61 63 65 67 69 72 74 76 79 82 85 88 87 81 74 69 62
33 37 28 22 22 24 26 29 33 34 36 38 41 43 46 49 52 53 55 55 55 56 56 56 58 61 64 66 68 70 74 77 78 80 82 85 86 86 82 72 67 63 60
40 31 22 23 28 29 29 33 35 37 39 40 43 46 50 52 54 55 55 54 54 56 59 59 61 63 66 69 70 74 76 79 82 83 86 88 88 83 76 65 61 61 60
20 30 24 27 29 31 33 35 36 38 39 42 46 50 53 55 56 56 56 55 57 60 62 64 66 68 70 71 74 77 79 84 85 86 87 86 80 75 70 59 56 57 57
29 30 31 32 33 34 36 36 37 39 43 47 51 54 55 56 57 57 55 57 60 62 66 70 72 74 78 77 79 81 85 85 85 86 86 83 75 71 67 62 58 58 57
34 35 35 35 37 38 37 37 39 43 48 52 54 56 58 59 59 56 56 59 63 67 72 75 77 79 79 81 83 83 88 88 87 86 84 78 73 71 69 63 57 51 61
37 38 39 39 37 36 37 40 44 49 53 56 58 59 60 61 61 59 62 67 69 72 75 77 80 81 82 84 84 87 91 91 92 87 83 76 68 67 65 61 52 48 57
35 36 36 36 35 38 41 46 51 55 58 60 61 62 62 61 61 62 67 68 73 77 81 83 82 84 83 84 89 91 91 90 91 86 78 70 62 62 57 51 50 49 57
34 36 36 36 39 43 47 52 56 60 61 62 63 63 62 62 63 67 68 72 75 78 83 85 86 84 84 87 91 92 91 91 89 81 72 67 60 56 39 43 46 49 51
38 38 38 41 44 48 53 57 60 62 63 64 64 63 63 66 70 73 76 77 76 80 83 85 86 86 88 91 91 91 89 92 86 75 66 63 57 44 35 47 44 43 43
41 42 43 46 49 53 57 61 63 64 65 66 66 66 68 71 74 78 79 78 83 84 85 84 85 88 90 90 89 88 90 89 81 72 61 61 52 43 29 40 39 37 42

GFSMA_500_spd_045.txt.gz
Wind_Speed
26 22 17 17 24 22 20 19 21 27 27 26 22 16 15 16 15 17 16 16 14 14 14 13 13 16 17 20 26 30 31 32 33 34 37 39 39 38 40 42 42 42 42
24 25 19 20 24 21 19 18 22 29 27 27 20 18 15 15 16 17 20 19 19 20 20 22 23 24 26 30 34 37 38 38 40 42 43 44 43 44 46 46 46 43 43
26 23 22 23 26 21 18 22 27 28 25 23 19 19 14 17 20 19 21 24 25 29 29 27 26 27 32 35 36 39 41 43 47 49 48 48 47 48 48 49 46 45 44
24 26 26 28 26 18 21 26 27 26 23 21 22 18 19 18 21 24 25 27 29 31 32 31 31 33 36 41 41 45 46 44 48 49 50 52 51 51 50 48 47 47 47
25 23 27 24 20 20 26 23 24 24 24 24 21 19 20 21 24 27 30 28 28 29 32 34 34 36 38 40 41 42 44 47 49 52 55 54 54 54 52 49 49 46 47
24 24 21 16 20 22 21 21 23 25 24 21 21 21 22 23 26 28 30 31 31 33 34 35 38 40 40 40 43 45 47 50 51 54 57 55 56 55 53 52 51 49 49
19 20 18 18 19 20 22 24 26 23 23 24 23 24 25 28 29 30 32 34 35 35 33 38 39 41 42 46 49 51 53 54 56 59 57 56 57 54 52 52 54 53 54
18 18 18 19 19 21 23 24 26 28 25 25 26 28 29 31 33 35 34 35 37 37 41 41 42 42 46 50 51 53 56 56 57 57 58 57 54 53 54 55 55 57 59
17 19 18 15 19 23 24 28 29 26 28 29 30 31 32 33 32 31 31 30 32 34 38 38 40 44 48 50 51 53 54 56 58 58 59 56 56 56 57 57 59 61 63
16 19 19 20 25 24 29 30 27 26 29 30 29 31 33 35 32 31 34 35 33 35 37 38 43 47 51 53 52 53 55 56 58 58 57 57 59 59 60 62 64 66 68
11 16 18 21 25 26 29 26 27 28 31 30 28 29 30 30 30 31 33 35 38 39 39 42 47 52 54 53 53 53 54 54 55 56 57 59 61 62 64 67 69 70 72
9 14 17 22 24 28 28 28 26 29 30 35 35 34 33 32 33 34 37 38 38 39 43 47 51 52 52 52 53 52 52 54 56 60 61 62 63 66 69 71 73 75 79
15 17 20 21 27 32 31 33 33 34 27 31 33 34 35 36 36 36 37 37 39 42 46 50 50 52 52 53 52 51 53 56 59 62 64 66 68 70 72 75 78 82 86
17 21 22 24 30 30 33 34 34 35 29 32 36 35 35 35 35 37 38 38 42 46 49 51 50 52 52 51 50 52 56 60 63 66 67 69 72 74 76 80 84 86 88
23 26 28 26 27 38 33 36 36 29 28 31 30 33 36 38 36 37 40 42 47 49 51 51 52 51 50 51 53 57 60 63 67 70 72 74 76 79 81 84 86 86 88
27 31 33 34 34 36 35 35 32 27 29 30 32 34 35 36 37 40 44 48 51 52 52 52 49 48 51 54 58 61 65 68 71 74 75 78 79 82 84 86 87 86 86
37 39 42 39 40 32 32 28 27 29 29 32 34 35 35 37 40 44 49 52 54 55 54 53 50 49 55 59 61 65 68 71 74 77 80 82 83 84 87 86 87 85 80
37 35 34 43 36 29 31 27 27 31 32 33 34 35 37 40 45 49 53 55 55 56 56 52 52 54 58 61 64 67 71 74 76 78 82 83 84 88 88 87 84 79 66
25 24 24 28 28 20 23 28 30 33 34 35 36 37 41 45 49 53 55 55 56 57 56 56 57 60 61 64 67 71 74 76 79 81 82 84 87 88 87 85 79 74 69
25 26 28 24 26 27 28 28 32 35 36 36 38 41 45 49 53 55 56 57 57 59 57 58 64 67 68 71 74 76 79 79 80 82 85 85 88 88 86 81 79 71 67
28 27 29 29 30 33 32 35 38 38 37 38 41 45 49 53 55 57 59 58 61 58 59 62 68 71 76 78 77 82 83 84 81 84 85 87 88 86 84 82 75 67 66
29 30 32 33 36 35 36 39 39 38 39 41 45 49 54 57 59 60 62 63 62 63 66 68 71 76 78 77 82 85 87 86 88 87 91 93 89 87 83 80 69 64 64
34 33 33 36 39 40 39 39 39 41 44 47 51 55 59 62 64 65 66 66 67 69 72 75 78 80 78 82 87 88 88 89 92 91 95 97 85 86 81 72 62 60 60
36 38 39 40 40 40 41 42 43 46 49 53 57 62 65 66 68 69 70 70 72 75 78 80 81 82 83 86 89 91 90 93 95 96 94 93 85 85 77 65 57 57 53
42 42 43 43 43 43 44 45 47 51 54 57 62 65 67 69 69 71 71 72 76 80 82 84 84 84 85 88 91 92 92 96 98 98 89 91 85 79 69 58 52 50 34
44 46 47 47 46 47 48 50 53 55 58 63 66 68 71 71 71 73 74 76 80 82 84 85 86 87 89 89 89 91 95 100 102 103 87 88 78 71 62 52 50 39 31

GFSMA_500_spd_051.txt.gz
Wind_Speed
38 31 25 25 20 19 21 26 28 28 24 22 25 31 27 22 23 21 20 20 17 15 16 17 17 17 18 20 22 25 29 30 30 32 29 31 32 34 37 38 39 39 38
34 34 26 26 22 20 23 25 26 27 23 24 24 26 27 24 25 21 18 17 18 20 20 18 18 22 25 27 29 32 33 31 32 30 27 29 33 35 37 38 40 39 40
34 28 27 25 23 22 24 25 27 27 24 26 28 30 23 25 22 20 21 23 22 20 20 23 25 26 27 30 32 34 33 33 31 29 30 32 36 38 39 40 42 40 39
31 32 28 23 21 24 29 28 26 29 29 29 29 29 28 26 24 23 24 25 25 22 24 25 27 28 30 32 33 34 34 34 33 32 32 36 38 40 42 42 41 40 39
31 31 28 22 23 28 30 29 28 30 30 32 35 30 29 27 27 28 28 26 24 26 29 30 29 30 32 31 32 33 33 35 34 33 37 40 42 44 43 41 40 39 37
27 28 28 28 29 28 31 30 30 30 32 32 32 29 31 35 30 28 27 26 26 29 32 33 35 37 36 34 33 34 36 36 36 37 40 43 44 44 44 42 40 37 39
24 27 29 29 28 30 29 28 28 31 33 31 32 37 36 30 29 29 30 29 31 33 34 38 36 32 31 34 36 37 37 36 38 40 43 44 45 45 44 42 38 40 42
27 28 30 28 27 28 27 27 27 29 33 31 31 33 29 27 31 32 33 35 36 37 39 40 37 36 38 37 37 38 39 39 41 44 45 46 46 46 43 39 41 44 46
28 30 32 26 26 24 24 25 26 29 29 29 33 30 31 33 34 36 36 37 38 40 40 36 34 35 37 38 40 40 41 42 44 46 48 49 48 45 42 44 46 47 48
24 25 21 20 23 20 21 24 27 29 27 28 29 33 37 37 38 38 38 39 38 35 36 34 36 38 39 41 41 41 43 45 47 49 50 50 47 44 44 47 50 51 53
14 15 17 19 19 19 22 25 28 29 29 31 32 36 36 37 39 41 39 39 38 39 36 36 37 40 41 41 41 43 45 46 48 48 50 50 48 48 50 54 57 59 60
17 19 21 21 21 23 25 28 31 31 28 32 32 33 37 40 39 40 42 41 43 37 38 37 38 40 42 43 44 45 48 50 50 51 52 51 51 52 55 57 62 67 69
17 20 20 22 25 28 31 31 32 31 31 33 33 36 39 40 42 40 43 44 48 42 39 39 41 40 43 43 45 48 52 53 52 54 52 52 54 57 60 62 64 68 71
16 19 20 23 25 28 29 30 28 27 28 32 32 33 41 46 47 45 49 47 45 45 43 39 43 43 43 45 48 50 50 51 53 54 53 55 57 60 65 67 70 71 70
20 22 24 25 26 29 29 30 31 33 34 36 39 40 36 45 50 50 54 46 50 50 41 45 43 44 46 48 50 52 53 55 55 55 56 57 60 64 68 71 72 71 72
24 26 29 31 32 31 32 35 38 39 39 44 44 45 44 45 48 53 47 42 44 41 41 42 42 44 47 50 52 54 56 57 57 57 58 61 64 69 71 73 73 74 77
32 33 36 36 37 37 37 38 41 45 46 49 49 50 46 37 43 43 39 39 40 42 41 43 44 47 48 52 55 58 59 58 58 59 61 63 67 70 72 76 78 80 79
26 27 26 32 39 46 36 41 38 33 39 41 45 33 32 34 38 40 37 40 40 42 44 45 48 50 52 55 58 61 61 61 61 61 63 66 68 72 77 77 78 79 80
29 30 27 24 22 28 28 31 30 24 27 31 38 37 38 39 39 41 41 42 45 45 47 49 50 53 55 58 61 62 63 66 67 67 68 69 73 76 78 77 78 79 81
32 31 29 28 26 24 29 33 30 30 30 31 35 38 40 42 44 46 45 47 49 49 52 53 54 57 60 62 63 66 69 69 67 69 70 73 76 78 78 79 79 81 84
34 32 32 31 31 30 31 33 35 34 33 35 38 38 39 41 43 46 49 50 51 53 55 57 59 61 63 65 68 71 73 68 69 72 74 77 79 82 82 81 79 82 86
35 35 34 33 35 35 35 36 37 37 37 39 39 41 42 46 48 50 52 53 55 56 58 60 62 64 67 70 71 74 73 71 74 76 79 81 83 84 83 82 84 87 89
35 35 37 39 37 41 41 39 38 41 40 43 43 46 49 52 52 53 54 55 57 58 61 64 65 68 70 72 74 78 76 77 79 82 84 86 87 86 84 83 86 90 94
33 34 36 36 38 40 42 43 41 43 44 47 49 51 54 53 54 55 56 57 59 61 65 67 68 71 74 75 81 82 79 82 85 87 89 89 88 85 84 86 90 94 99
34 34 37 38 37 39 41 43 45 46 50 53 55 56 55 56 56 57 58 59 61 65 68 70 73 76 79 84 85 82 85 88 91 90 87 89 87 87 85 88 93 96 100
36 37 36 38 40 42 43 45 48 51 52 55 55 57 58 58 59 60 62 63 66 68 72 75 79 83 87 88 87 89 92 93 93 92 86 88 88 92 92 89 95 97 94

GFSMA_500_spd_054.txt.gz
Wind_Speed
47 37 37 29 26 29 24 21 23 23 25 26 26 24 22 24 22 22 22 21 22 19 17 15 17 15 18 17 20 23 25 28 31 32 33 33 34 33 30 31 34 37 37
46 39 42 30 30 28 24 25 23 22 21 23 24 25 25 28 29 27 24 23 21 20 20 18 18 19 19 21 26 28 30 32 32 33 34 35 34 32 32 33 35 37 37
47 48 41 32 31 29 27 26 24 23 21 25 28 27 30 32 25 26 25 27 24 23 18 20 18 19 22 25 28 31 33 34 34 35 36 36 34 33 33 35 37 38 38
41 48 37 35 34 32 28 29 28 26 25 27 29 27 28 28 30 28 28 27 25 23 23 23 23 23 26 29 30 32 33 34 35 36 35 34 33 35 36 38 40 39 39
35 35 36 36 35 31 29 29 27 26 28 29 29 29 32 34 30 31 30 29 27 27 25 27 26 28 28 30 34 34 36 38 39 37 37 36 37 39 40 41 41 40 41
30 30 33 34 26 26 27 28 24 27 30 31 30 32 33 32 32 32 30 34 29 28 28 29 29 31 33 36 35 33 34 36 39 36 36 38 40 41 43 42 42 43 41
19 23 29 29 29 29 28 27 28 30 31 31 32 36 36 37 32 32 33 31 30 30 30 32 34 36 36 40 40 37 38 39 37 37 38 41 41 42 43 45 46 43 40
19 20 20 26 28 29 28 30 30 29 30 29 31 31 34 33 33 37 36 33 32 33 34 36 38 40 43 40 38 38 37 38 40 40 40 41 42 44 47 46 46 42 42
19 24 24 25 26 27 29 29 30 30 28 27 29 27 29 32 36 32 31 33 35 37 38 41 42 40 40 39 39 38 41 42 43 42 42 42 45 46 46 48 46 44 44
21 25 28 27 26 28 27 25 26 26 24 24 24 28 30 31 32 32 35 37 39 40 43 44 43 41 42 41 41 41 42 43 44 43 43 45 47 47 47 48 48 48 49
22 24 26 26 20 19 19 18 19 21 21 21 23 27 28 31 33 36 39 43 42 44 45 44 46 47 46 44 44 44 43 42 42 43 44 47 49 49 47 47 48 49 51
16 18 19 18 18 20 20 19 23 24 26 26 29 32 32 35 38 40 42 43 44 47 45 49 48 47 49 46 45 45 43 46 45 45 47 49 50 51 50 50 50 53 55
16 16 16 18 20 22 24 28 27 31 29 29 31 34 33 34 36 40 43 41 44 44 46 55 45 52 50 50 49 47 45 43 45 46 48 50 51 53 54 53 54 56 58
16 17 17 19 21 24 25 27 29 31 32 32 33 34 36 36 40 42 44 42 47 48 50 53 55 54 52 51 45 45 44 43 46 48 50 53 55 54 56 57 58 60 63
17 18 17 19 22 25 27 30 31 33 35 35 33 34 37 38 42 48 48 49 50 54 54 50 43 43 46 48 51 48 46 46 46 50 53 55 58 58 58 60 62 63 65
19 19 22 25 26 30 33 34 36 36 39 38 41 41 42 44 47 52 59 56 61 64 65 50 42 47 51 53 51 48 47 49 51 54 57 58 60 63 65 65 66 68 69
22 24 25 26 26 31 35 38 38 41 42 41 42 45 49 51 54 59 63 63 56 52 44 43 46 47 51 51 50 49 51 53 56 59 60 63 64 67 67 66 68 69 72
25 23 25 27 27 27 27 32 38 41 46 46 46 51 42 48 48 45 41 40 36 38 45 46 46 49 50 51 52 54 56 58 61 64 64 67 68 70 68 69 70 74 76
27 27 29 28 28 29 32 30 30 36 39 40 42 42 37 40 43 39 39 44 42 40 47 48 50 51 54 55 57 59 61 62 66 68 69 71 72 74 73 72 75 78 80
27 28 31 32 32 33 33 34 33 34 34 38 37 36 42 41 43 42 44 47 45 48 51 53 55 56 57 59 61 64 65 66 69 71 73 74 76 79 75 76 80 82 84
31 33 34 35 35 37 37 36 39 39 38 39 41 41 43 44 43 40 42 44 47 51 54 55 57 59 61 63 65 67 68 70 73 75 76 77 80 82 79 82 84 86 85
37 37 33 36 36 36 37 38 41 40 43 42 39 42 42 45 42 44 47 49 53 55 58 60 61 62 63 65 68 69 72 74 76 77 78 81 85 82 84 88 88 87 87
37 36 37 38 37 35 36 39 41 43 43 44 44 42 47 47 50 50 52 55 58 60 61 62 62 64 65 67 69 72 74 77 78 79 83 83 84 87 89 90 88 88 86
40 39 39 39 38 36 37 38 40 42 43 44 45 48 49 52 53 55 58 61 64 64 63 63 63 65 67 69 72 74 77 78 80 83 84 86 89 90 90 90 88 86 85
45 45 44 41 38 37 38 40 41 44 46 48 50 52 54 55 57 53 58 65 66 71 67 65 66 68 70 72 75 78 79 82 85 86 89 91 93 92 92 90 87 86 86
43 42 45 46 45 41 43 43 45 46 49 51 53 55 56 58 60 62 65 64 71 69 69 69 71 73 75 76 78 80 84 88 89 91 93 93 94 94 93 85 84 86 88

GFSMA_500_spd_057.txt.gz
Wind_Speed
34 46 38 39 38 33 30 29 25 25 22 19 19 19 22 22 24 24 21 22 22 20 18 19 14 17 13 15 16 21 22 23 25 27 30 31 33 33 35 36 33 33 33
37 46 42 40 39 33 32 30 30 27 22 19 18 19 21 22 26 25 23 24 23 21 20 15 16 14 17 18 22 21 24 27 30 31 32 33 33 34 37 36 35 34 35
45 50 45 44 41 35 33 31 30 26 20 19 17 20 21 25 26 27 26 28 26 20 20 15 17 20 20 22 20 23 26 28 30 32 32 33 34 37 36 35 35 35 38
37 53 48 44 42 39 35 30 29 25 23 21 22 22 25 26 28 32 33 28 25 25 22 19 20 19 23 23 24 27 29 32 35 35 35 35 36 37 38 37 37 38 40
37 42 48 49 43 43 34 31 28 27 24 24 24 25 27 29 32 32 30 29 27 23 21 21 24 27 26 28 29 30 31 34 34 35 34 36 37 35 35 37 39 40 42
25 39 35 48 47 40 35 31 29 26 25 25 25 27 29 30 33 32 35 34 28 26 29 28 27 27 30 31 33 34 35 38 38 38 38 34 34 36 38 39 39 41 43
34 31 32 42 43 38 32 28 26 26 26 28 27 29 29 32 34 36 35 29 28 29 32 28 27 30 33 35 35 38 39 39 39 38 38 38 38 38 38 37 39 44 46
15 18 20 31 36 32 27 27 27 26 26 27 28 30 31 33 32 35 33 33 32 33 29 30 31 32 34 35 41 41 41 40 39 37 39 41 40 40 40 41 46 43 45
16 15 14 18 22 24 25 24 25 26 28 27 27 26 26 27 31 31 31 30 30 33 34 33 34 35 38 41 40 41 44 43 43 42 41 38 37 38 44 44 44 44 45
17 17 20 19 22 21 22 21 24 25 25 23 22 19 20 24 21 24 28 28 30 31 33 36 37 38 41 43 45 46 45 49 47 46 43 40 42 42 41 42 42 44 47
21 17 19 24 24 22 20 21 17 18 18 19 15 17 17 20 22 25 24 24 31 35 37 40 41 41 42 44 48 53 51 47 48 47 44 46 41 41 44 46 48 48 50
18 18 18 20 20 16 17 15 15 16 15 14 15 20 21 22 24 25 29 34 38 37 38 44 44 45 48 49 52 53 54 52 55 51 45 44 42 43 46 47 49 52 53
10 11 11 11 13 15 17 19 17 18 19 20 24 24 27 29 32 31 35 36 39 40 43 44 48 49 50 53 53 61 56 48 48 46 42 41 44 48 49 49 51 52 54
12 12 11 12 14 16 17 20 22 22 25 30 29 30 32 33 33 35 38 41 41 45 46 48 49 52 54 54 56 62 55 44 48 50 48 46 46 51 54 54 56 56 58
15 15 16 16 17 18 20 22 24 25 28 32 32 35 37 38 36 37 39 42 44 46 48 50 56 59 59 65 66 49 43 47 51 56 52 53 52 54 58 59 60 61 62
19 18 19 19 21 20 23 26 26 30 32 33 35 37 40 42 42 44 45 47 50 54 55 60 64 69 69 67 48 44 46 52 54 55 55 54 57 59 62 64 65 66 67
18 18 19 20 23 24 25 25 26 29 33 36 40 42 43 44 47 48 48 51 54 54 56 58 54 44 35 41 42 49 49 51 53 55 58 58 61 64 67 68 69 70 72
20 21 23 24 24 25 26 29 29 29 31 34 34 40 42 46 48 50 50 48 47 51 48 37 38 43 42 43 48 51 52 55 56 59 59 61 65 68 70 71 73 75 77
25 27 27 26 25 26 27 28 29 30 32 37 37 37 39 43 49 46 47 44 47 51 48 48 46 50 47 49 52 58 59 60 62 63 64 66 69 71 73 75 77 78 81
29 29 28 27 27 30 31 31 32 33 36 37 36 39 41 39 41 41 43 46 49 50 49 46 49 51 54 55 58 60 62 63 65 67 69 71 71 73 75 77 79 82 84
29 28 30 32 33 36 38 38 39 40 38 38 38 40 41 41 46 47 45 47 50 48 48 49 52 54 57 59 62 64 67 68 69 70 71 72 74 75 77 79 82 84 85
35 35 37 39 39 36 36 36 40 41 41 41 42 42 43 44 48 43 45 45 50 54 53 55 56 58 61 62 66 68 69 71 71 71 72 73 76 78 80 82 84 85 88
40 40 40 40 40 40 37 38 41 45 46 45 43 43 43 45 45 49 48 51 55 56 57 59 60 67 63 65 70 72 74 73 73 73 75 77 79 81 82 84 87 90 92
44 44 43 43 44 43 45 44 44 45 46 45 44 45 45 48 49 51 51 55 58 59 58 63 60 56 62 73 73 79 79 76 75 78 81 81 83 81 85 89 92 94 95
44 46 45 45 44 47 48 46 48 49 48 48 48 49 51 53 54 56 57 58 63 60 62 68 63 66 73 76 81 78 77 78 80 83 85 87 90 90 91 94 94 95 95
46 46 47 44 46 50 49 50 49 50 52 53 54 54 55 57 59 61 62 63 63 63 62 62 71 73 72 78 80 80 81 82 83 85 90 92 95 96 92 91 95 97 95

GFSMA_500_spd_060.txt.gz
Wind_Speed
23 27 27 37 41 36 33 33 32 31 29 22 20 19 20 17 20 19 20 19 17 19 19 18 13 14 12 16 13 13 13 20 22 22 24 26 27 28 26 26 28 32 33
28 32 26 39 41 43 37 35 34 31 28 21 22 21 21 19 21 19 19 21 19 18 19 20 17 14 13 12 12 15 21 23 22 23 25 27 28 28 29 30 32 34 34
33 26 26 30 48 47 39 36 33 32 28 21 22 20 21 19 19 20 20 21 20 20 20 19 18 15 15 14 16 21 22 20 23 25 27 28 29 29 30 32 36 35 35
30 27 26 37 40 43 38 35 34 31 29 24 21 21 22 22 19 20 22 22 21 23 22 20 18 17 22 25 21 22 22 22 25 25 27 28 29 30 32 35 33 33 34
31 26 34 44 46 44 37 38 36 32 30 26 22 20 22 22 23 22 23 25 26 27 24 21 23 25 21 23 22 25 26 26 27 29 29 30 30 32 34 33 33 33 32
33 33 34 41 44 50 42 41 37 35 32 25 22 20 21 22 25 27 27 27 30 28 25 22 26 24 24 27 29 29 30 30 30 31 32 32 33 34 34 34 33 31 32
33 31 22 27 35 42 50 43 42 38 30 25 21 22 24 28 27 27 29 30 29 27 29 27 28 29 29 32 32 31 31 33 33 34 34 35 37 37 35 35 32 32 38
27 23 29 30 39 35 39 47 39 32 26 23 23 23 26 26 24 28 29 28 28 29 29 30 32 34 34 34 32 33 34 35 35 36 38 39 42 42 41 38 35 42 36
21 20 16 19 25 28 35 34 30 25 22 21 23 24 26 22 22 21 23 24 25 25 30 32 30 30 33 31 34 35 37 38 36 37 42 44 45 44 43 40 43 39 36
21 16 13 12 10 12 20 23 25 23 22 23 24 22 20 15 11 15 16 15 20 25 29 28 30 33 31 34 34 36 37 40 43 43 44 48 53 47 46 43 41 38 40
14 15 13 14 10 10 13 21 22 23 22 19 16 14 12 10 11 15 16 17 19 20 25 28 33 34 35 36 39 41 40 39 42 48 52 54 58 51 44 40 39 39 41
11 15 15 12 15 16 17 20 22 20 14 11 10 12 12 12 16 15 17 20 20 26 31 30 35 37 39 41 41 41 42 43 44 45 49 51 52 42 47 46 47 45 47
1 2 5 8 10 12 15 19 19 16 16 11 12 14 18 18 22 21 23 26 30 31 32 33 35 40 42 45 48 50 47 47 51 53 55 60 48 40 47 49 52 52 53
9 9 11 13 14 13 12 12 15 16 16 17 18 20 24 24 27 28 30 30 34 38 39 38 39 39 43 48 52 56 58 57 59 61 62 48 44 47 51 55 54 54 57
8 9 11 12 12 13 13 16 17 17 20 22 23 24 27 28 30 33 35 36 38 40 39 39 43 44 49 54 58 60 62 62 57 55 46 44 50 51 53 55 57 57 60
12 13 14 14 15 14 16 18 17 22 24 24 27 29 31 31 32 36 38 39 40 44 46 46 50 51 53 51 50 41 38 36 34 38 45 47 52 54 56 57 58 61 63
13 14 17 17 16 16 18 21 22 21 22 24 25 27 30 33 37 41 42 44 43 45 49 49 50 50 48 46 38 43 41 40 41 46 50 53 56 56 57 60 61 63 66
14 16 17 17 19 22 24 25 24 23 25 25 25 27 29 32 33 32 36 41 43 50 52 51 47 45 48 47 50 48 47 47 46 49 53 55 58 58 60 62 63 65 67
21 22 23 24 25 26 26 26 26 26 25 26 28 31 33 34 35 37 39 41 39 44 51 48 46 48 49 49 48 50 48 54 55 57 59 60 58 58 61 64 65 67 70
26 25 25 26 29 29 26 27 29 30 32 33 35 36 37 37 38 40 42 43 43 43 44 51 55 48 48 46 50 50 52 57 60 58 62 62 62 63 66 68 69 70 72
31 33 31 30 30 31 31 32 34 36 38 40 40 40 40 42 43 43 42 45 44 43 46 49 49 52 51 54 57 57 57 58 59 71 66 70 70 70 74 74 73 74 78
35 35 35 34 34 35 35 37 39 39 40 40 40 41 43 45 45 47 48 47 45 49 47 45 47 55 56 58 59 60 59 59 67 60 66 72 72 75 77 79 80 81 78
40 38 36 39 40 41 41 41 42 45 44 44 44 44 43 44 46 48 49 48 49 50 52 54 56 59 52 56 65 60 64 67 66 66 75 74 80 83 83 83 81 81 85
43 43 43 40 42 43 43 42 45 47 48 48 49 49 49 47 48 50 51 52 53 54 55 57 60 61 63 61 68 67 71 68 67 75 82 80 83 84 82 81 85 88 90
48 48 48 46 43 43 45 45 47 47 47 48 49 51 52 52 52 53 54 56 58 59 59 60 63 64 63 67 70 73 71 71 73 83 83 85 87 83 84 86 91 93 95
52 52 51 47 47 47 48 50 48 50 53 54 52 53 54 57 58 58 59 61 63 65 64 65 69 69 71 73 75 74 74 71 80 87 90 86 86 89 88 91 95 97 97

GFSMA_500_spd_063.txt.gz
Wind_Speed
19 23 19 20 26 37 35 32 31 29 27 27 25 16 24 20 19 17 18 18 16 14 13 15 14 15 15 15 16 16 16 15 14 16 19 19 20 20 20 21 22 23 25
26 24 23 21 27 30 35 35 37 32 29 30 24 20 20 21 19 16 19 18 15 17 15 16 17 18 17 18 18 18 16 16 19 21 20 19 19 22 23 22 22 23 25
24 25 20 22 23 30 34 39 39 32 30 31 24 21 20 20 17 14 16 17 17 20 18 19 20 20 21 22 20 19 21 20 22 22 20 22 21 23 24 24 23 25 26
29 28 22 23 24 27 36 41 43 37 33 32 27 23 20 22 18 16 16 17 19 19 20 22 21 22 25 25 22 22 22 24 23 21 22 22 22 23 23 24 26 27 27
31 31 29 31 28 29 34 46 45 31 34 33 27 25 20 20 19 17 17 19 19 24 23 25 23 25 25 25 27 28 30 26 24 24 23 23 23 24 25 26 29 31 34
22 26 30 27 28 29 29 43 42 37 38 36 28 26 22 19 19 19 21 20 24 23 26 27 27 30 28 30 31 27 33 28 27 27 26 26 26 25 27 29 32 35 37
27 28 33 31 26 26 37 41 40 42 39 38 31 28 24 24 21 21 23 25 25 25 27 28 31 31 31 29 30 30 32 31 29 31 29 30 29 28 29 32 36 38 38
30 27 27 27 25 22 27 38 42 39 45 42 37 30 27 22 24 25 25 22 25 26 29 27 29 33 31 33 32 33 32 31 32 32 34 33 33 31 33 35 37 42 42
29 28 25 21 20 24 27 35 37 29 36 42 32 27 23 23 27 27 25 24 22 21 24 27 30 34 35 35 35 33 34 34 35 35 35 37 39 38 39 41 43 43 42
22 21 20 20 20 26 29 32 35 17 27 25 24 23 26 27 26 25 19 13 14 18 20 20 20 27 32 32 33 34 35 36 38 39 40 39 39 41 41 42 44 41 41
26 24 22 17 16 15 15 20 19 21 22 24 24 25 25 21 21 21 20 17 13 15 14 14 16 20 25 27 28 32 36 37 37 39 40 42 42 41 42 44 47 49 41
15 19 17 18 20 14 13 14 19 22 18 22 22 18 15 15 16 16 16 15 14 14 17 19 21 25 27 28 31 33 35 36 38 41 42 44 49 52 51 49 50 31 38
14 15 18 20 16 14 16 19 20 19 16 17 17 17 16 18 19 18 18 20 21 22 24 23 26 29 31 34 36 38 39 40 42 46 49 50 55 54 49 49 40 38 43
3 5 6 10 13 14 14 14 15 16 18 18 20 22 21 20 21 24 24 26 28 30 32 28 29 31 35 37 38 42 46 47 49 46 46 43 46 39 31 33 37 46 48
4 7 10 13 14 18 21 22 21 22 23 21 21 23 24 25 28 30 32 32 31 33 34 34 38 37 37 38 42 46 48 49 44 42 36 38 36 30 37 38 44 49 52
6 7 8 9 12 14 15 16 16 17 18 17 22 24 25 26 29 32 32 34 35 38 39 36 39 42 41 44 46 48 47 41 41 38 44 42 40 43 44 44 47 51 53
8 9 9 11 13 15 16 14 15 18 19 20 21 23 25 26 28 30 30 32 35 37 38 38 40 41 43 47 50 49 46 45 45 44 44 44 42 44 47 49 50 52 53
11 12 11 12 15 17 18 20 21 22 22 23 24 26 25 27 28 31 32 33 35 35 38 39 38 41 43 46 47 48 46 46 46 47 47 48 47 51 56 56 55 53 56
18 16 15 16 20 22 24 25 25 27 27 27 28 29 28 31 32 34 36 37 37 40 39 40 40 40 40 41 43 48 45 46 47 47 49 52 52 57 57 57 66 61 60
22 22 22 21 21 24 23 25 28 28 29 30 30 32 33 36 37 39 42 41 43 44 42 41 44 44 41 42 41 46 49 50 48 52 53 53 57 59 63 68 64 66 65
26 26 27 27 25 27 28 26 29 30 32 35 36 38 39 40 41 41 43 42 46 47 48 46 48 47 44 46 48 44 48 51 53 55 58 56 54 59 59 65 67 70 76
33 31 30 30 32 29 28 30 32 36 38 38 38 39 40 40 39 42 44 45 45 45 47 49 50 51 50 52 53 55 57 58 51 60 63 60 58 69 73 68 66 69 75
37 37 36 36 37 35 33 33 37 41 42 41 42 43 44 43 42 43 43 44 45 47 49 50 50 51 53 53 54 56 56 57 61 62 61 66 71 76 79 76 73 73 82
42 43 44 43 44 40 38 38 39 42 44 44 47 47 46 45 44 45 46 47 49 49 49 51 53 55 56 59 60 60 62 64 68 61 71 72 75 77 81 77 79 83 87
43 45 47 47 44 43 45 41 41 43 45 49 51 51 48 49 49 48 50 51 52 55 57 56 55 60 60 62 63 59 62 64 63 74 75 77 80 86 83 85 83 87 89
47 49 51 50 50 51 49 48 46 47 50 53 54 54 53 55 52 52 56 58 61 61 62 66 56 61 63 62 65 73 66 67 65 78 79 80 79 84 78 82 85 87 90

GFSMA_500_spd_066.txt.gz
Wind_Speed
28 25 29 27 25 28 25 32 34 33 33 24 23 27 21 17 15 18 16 18 16 17 18 18 18 19 19 21 22 21 21 21 20 19 16 16 17 18 18 18 19 20 19
27 22 27 23 21 28 28 32 37 32 30 25 25 27 21 17 18 18 16 18 17 18 18 18 20 19 21 23 25 23 22 22 20 18 16 17 18 19 17 19 21 21 21
23 19 25 20 18 19 24 30 35 32 33 30 25 29 24 21 17 18 17 19 17 17 20 22 21 20 23 25 25 24 23 21 19 19 20 21 20 19 19 18 19 19 19
23 23 24 20 21 20 25 30 29 33 33 33 28 29 27 21 20 20 19 18 19 20 21 21 24 26 26 27 27 27 25 23 22 22 24 25 21 21 22 22 21 20 20
24 26 25 23 25 25 24 28 30 31 39 38 34 28 30 24 22 21 21 21 22 22 22 25 25 28 28 30 30 29 27 25 24 27 26 24 24 24 25 24 23 23 23
28 27 31 29 32 27 27 25 28 32 42 42 37 31 30 26 24 24 24 23 22 24 24 26 30 28 31 32 32 28 27 27 31 33 32 26 26 27 28 29 26 25 26
32 32 27 26 30 25 25 27 28 32 36 42 31 30 32 31 28 27 25 25 26 26 26 28 29 30 35 34 32 31 31 31 32 30 33 30 30 31 32 31 31 31 28
36 34 28 25 29 29 27 27 27 33 29 41 40 36 35 35 33 31 28 29 28 27 27 29 31 33 33 32 36 34 32 34 36 34 34 33 35 36 35 35 35 37 36
36 34 29 26 26 30 27 29 24 28 38 41 41 39 40 39 36 33 28 28 30 28 30 30 32 31 29 32 36 35 35 39 37 37 36 37 37 38 38 38 38 39 36
27 29 30 28 27 27 27 25 28 27 27 37 35 26 34 36 31 31 31 29 30 28 29 32 30 29 28 28 35 38 38 38 39 38 39 38 39 40 40 41 43 42 41
29 32 32 29 29 28 25 24 28 27 28 27 19 24 26 28 31 33 32 30 25 24 22 27 31 28 27 29 30 34 36 35 35 36 39 39 40 40 40 43 47 49 51
30 24 24 23 25 22 23 25 33 27 19 23 24 24 25 31 32 32 29 25 25 25 24 22 21 23 25 26 29 32 34 35 35 37 37 38 40 43 47 49 50 53 57
8 13 20 21 19 21 20 19 19 24 26 24 25 25 26 26 26 23 20 22 23 24 25 23 24 26 28 31 32 33 35 37 38 35 37 40 42 44 43 38 40 38 31
6 10 16 18 18 22 21 18 21 22 25 27 28 24 21 23 24 27 26 26 25 27 28 27 31 31 32 34 35 36 38 40 39 38 40 42 37 37 34 36 36 30 33
5 7 7 7 9 11 12 14 17 18 21 25 24 26 27 27 27 28 28 29 32 32 33 33 34 35 36 40 40 41 42 44 46 44 44 42 38 39 41 42 37 40 40
7 9 10 11 13 16 16 16 17 19 22 22 25 26 27 26 28 29 31 33 35 36 37 34 35 36 38 39 39 41 42 43 44 47 46 46 43 44 45 43 43 42 42
9 10 10 11 13 14 16 16 17 20 19 20 23 26 27 29 30 30 32 34 36 38 38 37 36 36 38 40 39 42 45 45 45 45 46 46 47 46 46 43 46 45 50
14 14 14 14 14 14 14 15 17 20 20 22 26 28 27 31 31 31 32 33 35 36 39 39 39 39 40 40 41 42 42 43 44 43 46 48 47 47 47 47 50 48 53
19 18 18 19 19 18 18 21 23 24 25 26 29 30 29 33 30 31 33 34 37 40 43 45 43 45 44 42 43 42 40 43 44 44 44 48 50 47 48 51 49 51 54
19 20 22 25 24 25 23 23 25 26 27 29 32 32 31 33 31 32 37 38 41 45 47 50 51 50 52 44 44 44 46 47 47 47 47 45 47 53 56 49 57 57 57
27 27 27 27 29 30 28 27 28 31 32 30 32 33 34 36 38 38 40 40 44 47 47 46 46 45 47 46 45 48 49 49 51 51 50 51 53 56 55 57 59 53 59
35 36 34 34 34 33 31 32 32 33 35 37 36 37 39 41 40 41 43 45 49 49 49 49 46 45 45 45 44 46 49 49 50 50 54 53 55 55 62 64 61 56 63
39 37 37 39 40 39 37 38 39 40 41 41 40 41 44 44 44 45 46 49 51 50 48 46 47 47 46 47 49 50 52 52 53 54 56 58 57 57 62 68 65 68 70
42 42 43 43 44 44 42 43 43 44 48 47 46 46 48 47 46 48 52 52 52 51 51 50 48 45 45 49 55 55 57 54 55 53 65 62 60 60 66 67 73 78 78
46 47 46 47 50 49 48 49 49 50 51 50 52 53 51 51 51 52 55 55 56 57 54 53 54 54 53 53 58 59 65 56 64 68 66 70 73 75 74 71 69 76 86
49 51 52 53 53 52 53 54 55 55 56 55 56 58 58 57 57 60 60 60 61 62 63 63 62 63 61 66 67 72 67 59 66 65 71 71 77 75 79 75 78 82 84

GFSMA_500_spd_069.txt.gz
Wind_Speed
32 35 32 30 23 28 25 18 24 26 29 32 32 29 22 19 18 15 17 17 18 18 19 19 19 19 21 21 22 25 24 24 24 24 23 22 21 17 16 17 17 16 18
30 31 35 30 27 31 25 18 20 28 29 30 31 28 24 22 19 16 17 18 19 20 21 20 21 21 22 22 25 26 27 26 25 26 24 23 19 18 17 19 18 17 20
32 33 30 29 25 25 27 25 24 27 27 27 27 31 27 23 21 19 18 21 21 22 21 22 23 24 23 24 27 28 29 30 28 26 25 21 19 21 20 21 20 20 20
31 29 27 26 25 21 22 25 24 25 29 32 29 31 28 25 22 22 20 24 23 23 23 24 25 26 28 28 29 29 30 30 29 26 24 24 22 22 23 23 21 24 26
27 22 24 22 21 22 17 17 21 23 30 35 34 33 31 31 27 25 23 25 24 24 25 26 26 28 30 30 31 31 32 31 31 28 26 26 26 24 25 24 24 26 26
28 24 22 29 24 21 22 20 21 26 30 34 34 35 34 33 31 29 26 25 25 26 25 26 29 31 31 29 32 32 34 32 32 32 31 31 34 32 27 26 28 28 30
31 26 29 30 28 22 25 24 24 26 27 30 32 32 35 36 34 31 29 27 27 27 27 29 31 32 31 33 34 35 34 34 36 35 36 33 35 36 34 31 32 33 34
40 33 31 29 29 30 33 31 28 29 30 28 30 32 36 39 34 34 32 32 31 31 31 31 31 32 32 35 36 38 41 39 37 38 38 39 38 36 37 36 36 38 38
41 41 35 39 30 32 30 29 27 26 27 27 29 31 31 42 41 38 37 39 37 34 33 33 34 35 36 37 38 39 38 38 39 39 41 41 41 40 40 38 39 41 40
40 37 34 39 35 31 30 31 32 28 28 27 24 25 31 35 45 31 36 44 41 34 35 36 37 39 40 37 37 35 36 40 41 41 40 41 41 38 39 41 40 41 43
26 40 34 33 35 31 30 32 31 28 28 29 25 26 20 28 31 29 31 34 35 34 38 38 34 32 34 35 36 35 37 37 40 43 41 42 39 38 40 43 44 43 46
22 31 32 33 33 33 32 33 26 31 30 30 28 28 28 30 29 30 33 36 36 36 35 31 27 27 26 29 31 31 31 32 34 36 38 39 39 39 40 40 43 45 45
25 27 28 32 31 32 35 29 30 29 26 30 31 26 29 34 31 28 31 34 32 31 29 30 29 27 27 29 30 31 32 34 37 38 38 39 40 42 41 43 43 41 37
14 21 28 29 27 26 26 27 30 27 35 30 38 24 28 28 29 30 29 26 24 28 29 25 27 29 30 33 36 36 37 38 37 39 42 45 44 44 46 47 44 40 41
6 12 16 17 19 21 22 26 22 23 25 30 30 31 33 31 29 25 24 27 30 31 31 29 30 32 34 37 38 40 41 41 42 42 44 45 43 44 46 46 42 41 43
8 9 10 12 13 15 16 17 15 19 21 24 26 31 32 28 25 24 26 29 32 33 34 33 36 36 38 41 41 42 43 45 44 42 44 45 44 44 44 44 43 43 44
10 11 12 13 13 15 17 18 18 20 19 19 21 24 25 26 26 27 30 34 35 35 34 35 35 38 40 42 43 43 43 43 44 46 44 47 47 48 48 46 45 45 45
15 14 14 15 17 18 19 19 20 21 22 24 25 26 25 30 29 30 32 35 36 38 41 41 37 36 39 41 42 43 43 44 47 45 45 46 46 47 48 48 45 46 50
17 19 18 19 19 21 22 21 21 21 22 24 26 27 29 34 31 32 35 37 38 39 42 45 43 40 41 42 45 46 46 48 48 48 49 48 48 51 49 48 51 49 48
22 21 22 24 24 26 25 25 26 27 27 30 32 32 33 35 34 36 39 40 40 44 44 49 50 47 47 46 44 43 45 47 48 50 50 50 51 50 52 54 53 54 55
29 29 29 29 29 30 29 30 32 32 32 33 35 35 36 37 37 38 41 41 43 46 48 50 50 49 48 49 48 46 48 48 47 47 48 50 51 52 52 53 57 57 58
34 35 32 33 36 36 35 36 37 37 39 39 39 38 39 42 42 41 43 44 47 50 52 50 50 51 48 48 49 47 50 51 49 50 53 53 53 54 56 59 61 67 61
39 38 38 37 37 38 41 42 44 45 45 45 45 45 44 44 44 46 48 50 53 55 56 55 55 53 52 51 49 51 47 47 49 52 54 56 58 66 60 63 63 72 66
44 43 42 42 42 42 42 45 46 49 51 50 51 50 52 52 51 50 52 55 56 58 60 62 60 59 58 55 55 53 53 53 56 56 57 62 62 64 66 69 66 69 70
50 50 50 50 50 49 49 52 54 55 56 56 55 55 57 56 57 59 59 60 61 61 63 66 67 66 65 64 62 61 63 64 63 65 67 69 72 70 71 58 72 71 71
50 51 53 55 56 57 58 57 58 59 61 63 64 65 62 63 61 62 62 65 66 67 70 70 71 73 74 72 70 69 70 69 71 71 71 77 78 80 72 77 75 79 82

GFSMA_500_spd_072.txt.gz
Wind_Speed
25 23 23 41 39 26 17 20 25 26 27 25 33 27 26 26 21 19 18 20 17 17 16 16 17 19 18 18 21 23 25 25 27 27 27 27 27 27 26 24 20 20 18
33 31 25 35 39 28 26 20 24 29 29 25 23 25 28 28 24 20 19 21 21 20 20 19 20 21 20 21 23 26 26 27 28 29 30 29 28 27 27 26 21 21 20
32 34 36 36 38 29 18 23 22 25 24 24 22 21 28 29 26 24 23 21 22 22 22 21 22 23 24 23 24 27 29 29 30 31 31 30 29 28 26 22 23 23 22
31 28 32 35 35 30 19 29 27 24 23 23 25 26 26 30 29 26 24 22 23 24 23 24 25 26 25 25 27 28 30 30 31 31 32 31 30 26 24 23 24 25 26
30 28 37 36 31 24 22 21 30 27 27 28 28 28 25 32 32 28 27 25 24 26 25 26 27 27 28 28 29 30 32 33 33 33 33 32 30 24 26 24 24 28 26
33 30 40 35 29 23 20 19 19 21 28 29 27 28 28 33 32 31 31 27 26 26 27 28 27 28 29 29 29 31 33 35 35 35 34 34 33 31 33 34 31 33 31
28 35 32 31 27 25 24 24 21 22 24 23 24 25 29 32 33 33 32 32 31 30 29 29 29 29 31 30 32 33 35 36 36 38 36 35 34 36 36 34 37 39 38
37 36 31 28 27 29 22 24 26 21 23 25 27 31 34 30 31 35 35 37 35 32 32 33 32 33 33 33 35 37 37 38 38 39 39 38 37 38 38 38 41 39 40
30 33 32 30 27 27 32 27 26 24 26 27 27 30 30 29 34 35 38 38 37 38 37 36 36 36 37 38 39 39 40 41 41 42 42 44 38 38 39 42 41 43 39
33 35 34 31 28 28 28 27 28 31 29 26 26 26 28 26 28 29 30 39 41 42 37 45 42 41 41 41 41 40 42 43 42 40 41 40 41 44 42 41 41 39 37
33 35 40 36 35 33 36 33 30 29 30 28 27 26 26 22 25 24 24 29 34 36 37 37 43 41 41 38 34 36 41 41 40 40 39 40 42 42 42 42 41 37 37
29 36 39 37 37 34 38 35 33 33 34 31 30 27 27 20 19 21 25 31 38 38 34 36 39 37 36 30 28 30 32 34 34 34 35 34 35 36 38 38 39 38 41
18 20 24 39 38 33 32 36 35 34 35 31 28 28 24 22 20 23 32 34 37 34 32 35 32 30 28 27 29 29 29 30 30 31 33 34 36 37 38 39 41 42 44
8 21 20 26 38 33 33 32 35 37 38 32 33 31 23 23 28 23 28 31 32 33 33 28 26 26 27 32 31 33 33 33 35 36 37 38 40 40 43 45 45 45 48
3 12 20 24 32 34 33 29 33 34 32 31 33 31 29 30 28 25 31 35 33 33 26 25 27 28 29 33 35 37 38 38 38 40 42 42 43 45 46 47 48 47 47
8 7 10 16 21 21 23 24 22 28 27 26 29 30 29 32 31 31 32 32 27 26 28 29 32 32 34 36 38 42 43 43 43 44 45 44 45 45 46 47 46 47 48
12 12 12 11 11 13 15 16 17 19 18 21 23 25 24 27 30 33 31 31 32 33 34 30 35 37 40 41 41 44 45 44 41 42 42 44 46 48 47 47 45 44 45
16 16 15 16 17 18 17 17 19 21 22 24 25 24 25 30 28 31 33 34 33 34 37 36 37 38 40 41 41 41 40 40 41 42 45 47 49 50 49 48 47 46 47
16 17 19 21 22 22 20 20 21 23 24 25 26 26 28 30 27 29 32 33 35 37 41 44 40 38 38 39 41 41 40 44 47 48 51 51 51 53 52 51 51 51 52
20 21 22 21 23 24 24 25 27 28 29 28 29 28 31 33 34 37 39 39 39 42 44 48 47 44 43 41 43 43 45 46 49 49 51 52 53 53 53 54 54 52 52
26 26 26 27 28 28 28 29 30 31 32 35 35 36 36 36 36 38 40 39 41 43 45 47 48 47 47 47 48 47 49 48 49 50 51 53 55 54 54 56 55 54 54
33 33 31 32 35 35 35 36 37 38 39 40 39 40 42 43 42 41 42 45 47 49 49 50 50 53 52 53 54 55 53 55 52 51 55 54 55 57 56 55 55 55 59
37 38 38 39 38 35 38 41 44 45 44 44 45 46 46 48 49 49 49 50 50 52 54 54 56 56 58 59 60 60 61 59 56 57 56 57 56 56 57 57 56 60 62
41 42 43 44 46 47 46 46 46 46 49 49 51 52 53 53 54 56 57 57 57 57 59 60 63 64 65 64 64 64 66 67 65 64 63 64 64 65 66 65 66 65 68
45 47 48 51 52 53 52 52 53 53 54 54 56 57 59 59 60 60 64 65 63 65 63 63 67 70 70 70 71 71 71 73 73 72 74 73 71 72 76 74 73 78 76
45 49 53 55 54 55 57 58 59 58 60 62 63 65 66 66 67 69 67 67 67 69 70 70 69 71 75 77 77 77 77 79 75 77 84 81 80 80 83 86 81 86 86

GFSMA_500_spd_075.txt.gz
Wind_Speed
25 24 30 31 29 33 26 18 20 20 27 30 29 29 30 31 36 27 29 22 21 21 21 20 19 20 20 19 19 21 22 23 23 24 27 29 29 28 28 27 27 25 25
23 28 25 29 30 38 34 24 21 24 25 29 34 34 33 30 27 23 24 22 23 21 22 22 22 22 23 23 21 24 24 23 25 26 28 30 30 29 28 28 27 25 23
23 30 26 25 31 40 35 28 23 23 28 31 31 30 30 24 24 30 26 25 24 24 24 23 23 24 24 23 24 25 24 25 26 27 28 29 31 30 29 29 27 25 24
27 30 33 30 28 37 36 33 26 28 24 30 34 33 29 27 27 34 29 28 25 26 27 25 24 25 26 25 25 26 28 27 28 28 27 29 31 31 30 29 28 25 24
25 27 33 38 35 36 36 35 25 28 27 30 29 27 26 24 25 30 31 29 27 27 29 28 26 27 28 27 27 29 30 30 31 28 29 30 31 32 30 30 31 26 25
23 28 30 34 37 39 41 31 28 35 33 30 28 25 26 24 26 29 33 31 29 29 30 28 28 29 30 29 29 30 31 32 32 30 30 32 33 31 29 31 34 32 31
24 33 33 29 34 36 27 29 27 31 33 31 30 26 26 23 24 28 35 35 33 32 31 31 29 29 32 33 32 33 34 35 33 33 34 34 35 36 33 34 34 37 38
30 31 33 34 39 35 22 25 23 22 21 23 23 28 26 24 25 29 33 37 36 35 36 35 34 34 36 38 35 34 37 39 37 36 36 37 37 37 36 36 38 38 39
27 32 25 33 33 26 26 27 27 22 20 21 22 25 25 24 28 29 32 36 37 36 41 41 39 39 39 39 38 38 39 41 40 40 39 40 40 39 41 43 44 39 38
18 24 33 31 31 27 29 30 26 22 25 22 24 26 28 27 29 31 32 32 29 38 40 40 42 42 44 41 41 42 41 43 43 37 39 40 39 39 40 42 40 41 43
14 20 30 33 32 30 28 25 27 28 26 27 31 29 29 29 29 29 29 31 31 30 38 39 36 35 40 42 43 48 43 39 35 34 34 36 38 37 36 37 38 38 37
11 18 22 28 34 31 31 30 25 30 30 26 26 31 29 29 26 27 25 23 30 33 36 35 35 36 40 38 36 39 36 37 31 29 31 33 31 31 30 32 34 35 36
8 11 21 29 31 29 33 32 27 29 31 30 31 30 32 25 25 25 25 20 23 27 30 35 37 38 33 32 33 36 36 31 28 30 29 30 31 31 31 33 34 35 36
6 10 15 22 26 26 28 29 29 29 30 33 31 29 31 31 29 31 28 26 24 23 27 29 31 31 31 34 37 34 31 30 31 31 31 32 33 34 36 37 37 39 42
8 5 11 14 18 22 28 31 33 31 32 33 34 37 39 36 36 31 27 29 21 28 27 29 30 30 31 30 29 30 31 32 34 35 36 37 38 38 39 39 41 43 45
8 7 6 13 18 21 23 27 33 33 32 28 32 34 33 28 28 31 32 33 34 29 24 26 27 29 29 29 31 33 35 36 37 38 41 41 42 42 42 43 44 44 44
9 8 8 7 9 11 12 14 19 25 29 28 28 30 28 26 26 24 25 25 26 29 27 23 31 32 36 36 35 37 39 40 41 42 42 42 42 43 44 46 46 47 47
7 8 10 11 11 12 13 15 16 17 19 21 21 23 23 26 25 27 29 29 31 30 35 29 34 35 39 39 40 41 42 42 43 40 39 41 44 46 49 50 51 51 52
11 10 11 12 14 15 16 18 19 20 21 23 24 25 26 28 28 29 31 31 32 35 39 39 32 37 38 40 41 42 41 44 43 41 44 45 48 50 49 50 52 54 53
18 17 17 18 18 19 20 22 24 25 26 27 28 28 29 30 31 34 36 36 37 39 41 45 45 40 44 43 48 44 47 48 49 48 48 49 52 52 52 54 57 58 56
23 23 23 24 25 25 27 28 28 29 30 31 31 32 32 33 35 37 40 39 41 42 45 48 50 49 47 46 47 48 51 48 50 50 51 52 53 56 58 58 59 60 58
23 24 26 27 28 31 28 31 33 35 38 39 39 39 40 41 42 44 46 46 48 49 50 51 51 51 51 50 51 53 55 54 54 51 56 58 60 61 61 63 62 62 64
25 27 29 30 31 32 32 34 36 38 39 38 41 45 47 50 50 51 51 53 54 56 59 58 56 56 56 57 58 57 57 57 59 61 63 64 65 66 66 66 66 66 66
30 31 32 34 34 34 35 36 39 42 45 46 49 51 52 51 52 53 54 55 57 59 62 63 66 66 66 65 64 61 64 65 66 68 69 71 71 71 70 70 71 72 72
36 37 38 40 40 39 41 43 46 48 50 52 53 54 55 56 59 59 59 61 62 65 67 66 66 68 69 68 68 72 75 74 77 71 79 81 77 85 85 79 85 81 78
42 45 45 45 44 45 48 50 52 53 55 57 59 62 63 64 63 62 63 65 67 69 72 74 75 72 75 73 75 73 74 76 70 78 82 89 78 85 80 83 80 86 83

GFSMA_500_spd_078.txt.gz
Wind_Speed
23 26 26 26 33 23 25 33 25 22 20 33 32 33 34 33 31 30 30 31 36 30 22 22 21 20 22 22 22 22 22 22 24 22 22 20 21 24 25 26 27 27 26
22 24 24 26 27 29 27 32 26 20 19 28 34 32 33 35 34 32 33 32 28 24 24 24 24 25 24 23 24 24 22 24 24 23 23 22 23 23 26 28 28 27 26
22 26 25 29 29 31 30 34 27 21 21 23 30 33 33 36 36 34 30 31 27 29 26 26 26 27 25 25 25 25 24 25 25 25 24 24 25 25 27 27 27 27 27
24 27 27 30 27 33 39 41 33 23 25 26 29 32 33 39 32 28 29 27 31 30 27 28 27 28 28 27 26 26 27 26 27 27 26 27 27 26 27 27 27 27 28
23 24 24 28 29 30 38 44 38 30 27 27 31 36 37 33 33 32 31 31 34 31 29 27 28 30 29 28 29 29 30 30 30 29 30 30 29 29 28 28 27 27 29
24 24 30 29 32 30 41 47 43 35 34 30 33 34 33 34 33 32 29 29 33 33 29 28 28 30 30 30 31 32 33 32 32 32 32 31 32 31 30 29 28 28 30
19 27 23 28 27 33 37 44 42 40 33 28 29 23 24 26 26 25 28 27 34 34 33 31 30 30 29 32 33 34 35 35 35 36 35 35 34 35 33 31 33 34 33
24 26 30 26 27 33 35 40 39 38 30 28 30 26 24 24 25 25 28 31 32 34 38 36 35 33 34 35 36 37 38 40 40 39 39 40 38 38 35 36 36 37 34
22 27 32 29 30 32 32 37 37 23 24 22 20 19 22 24 29 28 30 28 32 36 41 40 39 40 41 41 41 41 42 45 42 41 42 42 42 39 37 39 38 37 38
15 20 30 32 32 31 30 32 23 25 21 19 20 18 19 23 28 29 30 30 30 34 40 40 41 41 38 41 45 44 45 43 44 44 46 45 42 34 36 35 34 34 37
10 22 27 29 31 32 33 32 25 24 24 23 21 22 22 24 29 30 31 33 31 32 35 37 43 47 48 42 37 38 47 41 43 45 51 39 35 34 34 34 33 34 34
9 10 19 27 31 29 28 26 28 28 30 28 25 23 26 30 29 31 32 32 31 34 34 36 40 45 45 45 42 39 39 42 42 36 33 36 28 30 33 31 31 31 29
5 11 19 20 24 26 30 31 30 31 27 27 27 27 26 27 31 31 31 30 25 30 30 26 26 29 34 37 40 42 37 36 36 34 33 26 28 30 28 29 29 30 31
5 7 12 18 20 24 26 30 32 35 28 25 22 26 29 30 32 32 32 33 31 31 30 27 25 24 28 33 34 35 37 34 35 35 26 28 31 32 31 33 33 34 35
4 4 9 21 24 25 23 29 29 29 28 26 23 25 28 29 31 35 38 36 36 34 30 29 31 28 29 30 31 35 34 31 27 26 28 33 33 33 35 35 36 38 38
4 3 3 11 15 16 12 17 27 23 25 28 30 28 31 32 34 38 38 31 35 37 33 35 37 32 28 26 25 26 26 28 30 31 32 33 34 36 36 37 38 39 40
4 2 4 4 4 8 12 12 16 20 21 26 30 29 27 28 31 29 29 28 27 30 35 35 36 35 32 30 30 32 32 32 31 34 36 38 39 39 40 41 42 44 45
9 7 8 8 8 9 11 12 12 12 12 13 16 16 18 21 23 26 25 26 25 27 32 30 30 32 36 35 36 37 35 34 36 37 38 42 43 45 47 47 48 49 49
14 12 11 11 13 16 16 16 16 16 16 16 16 17 19 23 23 26 28 29 30 32 35 35 29 36 36 37 38 39 41 40 43 43 45 45 47 49 51 51 53 54 54
18 17 16 17 17 17 17 17 18 18 19 20 21 23 24 25 26 28 30 30 32 34 36 38 35 34 38 38 43 44 45 47 50 51 52 51 51 52 54 58 58 55 57
20 21 20 21 21 20 20 22 23 23 24 25 27 28 30 31 33 34 36 36 39 40 41 43 42 40 40 42 43 46 49 51 52 54 55 57 57 57 61 59 60 61 63
18 18 19 21 22 21 23 25 27 28 29 31 31 33 36 37 39 40 42 43 45 48 48 50 51 52 50 49 50 52 53 54 55 57 58 59 62 65 65 63 62 62 65
21 21 21 21 22 23 24 26 28 31 33 35 36 37 38 39 40 42 44 46 49 53 54 56 56 56 57 56 55 53 58 62 62 63 65 66 65 69 66 66 64 68 69
25 24 24 24 25 28 28 29 30 33 35 36 37 39 40 42 45 47 49 51 53 54 56 58 60 64 64 64 65 66 68 69 68 67 67 69 69 69 73 76 76 80 79
30 30 31 33 33 33 36 37 37 38 39 39 41 44 46 48 49 50 52 53 56 58 61 62 64 66 67 68 67 71 70 76 73 71 79 75 74 77 82 78 80 80 79
39 35 37 41 44 43 42 44 46 47 47 48 50 52 54 55 56 55 56 57 57 59 61 64 65 66 69 70 70 71 72 76 82 77 83 88 76 75 86 82 78 80 78

GFSMA_500_spd_084.txt.gz
Wind_Speed
24 21 22 19 19 23 25 28 22 27 32 29 32 29 36 39 33 25 34 32 28 28 27 27 22 22 19 20 22 22 21 20 19 18 17 17 16 15 15 16 17 17 20
26 24 24 21 17 22 25 27 28 28 32 32 28 30 31 34 29 32 31 31 31 31 29 27 26 24 25 22 22 21 20 20 20 19 17 17 17 16 17 17 18 18 20
28 26 25 24 22 21 24 25 26 27 34 35 32 31 29 28 32 33 36 32 31 31 30 31 28 27 29 27 22 21 20 21 21 20 19 19 19 19 19 19 20 21 22
27 25 24 22 22 21 25 26 30 31 33 38 33 30 28 30 30 31 34 31 32 31 29 27 27 27 24 23 24 23 23 22 22 22 23 23 24 22 23 22 23 24 24
27 27 24 23 25 25 25 26 30 35 40 34 34 29 26 32 28 27 31 31 26 29 29 29 27 28 27 26 24 25 24 24 24 25 26 26 26 27 25 25 26 25 27
25 26 27 25 27 26 25 26 29 34 36 38 32 25 22 28 24 23 25 31 28 27 26 25 27 29 27 27 26 27 26 26 27 28 29 28 29 30 30 30 33 30 30
26 27 27 27 28 25 26 28 32 31 37 41 34 20 21 22 23 24 25 29 29 26 23 25 26 28 28 28 28 28 29 29 30 31 32 32 31 33 34 37 42 34 32
25 27 27 29 31 26 28 32 31 30 35 38 34 24 23 21 22 24 27 30 30 30 27 30 29 30 32 30 31 31 32 33 33 34 35 36 36 36 37 41 42 41 37
25 26 27 29 31 29 34 36 32 31 36 40 37 32 28 22 27 25 27 26 26 29 28 28 29 27 33 35 36 36 36 38 40 40 39 40 42 43 44 43 44 42 42
18 20 23 29 30 32 37 36 29 28 35 38 38 38 33 29 25 23 22 21 22 22 24 27 30 32 29 32 34 35 38 42 46 45 46 45 43 42 43 46 48 40 40
17 21 25 29 30 35 33 32 32 30 32 38 39 34 38 33 24 26 24 23 22 24 27 27 30 29 30 32 33 36 39 41 43 46 49 50 51 49 44 42 44 40 38
16 18 21 27 29 32 25 32 32 25 25 31 32 30 26 20 22 23 20 19 19 21 22 25 27 30 31 30 32 33 34 37 39 41 44 43 41 42 42 40 38 37 32
11 19 13 21 25 32 29 30 30 29 29 29 34 29 23 22 21 19 19 20 20 24 23 24 28 30 30 31 31 31 32 32 31 32 33 38 39 39 37 38 36 35 31
10 16 16 12 15 28 29 30 32 29 25 28 28 26 26 25 21 21 20 21 23 24 23 27 29 30 32 29 32 32 31 32 32 34 34 32 32 30 32 32 31 29 27
13 14 12 9 16 16 25 25 26 27 27 28 26 27 27 24 23 21 24 24 24 25 25 26 27 32 35 33 32 34 33 34 33 34 31 32 29 24 22 20 20 22 27
14 12 12 11 15 14 22 23 22 25 29 22 23 22 22 23 23 22 24 23 24 25 25 27 30 28 29 29 30 32 33 33 29 28 30 28 27 27 27 27 29 32 34
16 12 11 8 15 19 18 20 21 21 25 24 21 22 24 24 25 25 28 27 27 29 31 28 21 20 20 22 25 28 28 28 27 28 29 32 33 33 34 34 36 39 39
19 14 8 9 10 17 18 19 17 13 14 22 20 25 24 23 23 26 26 27 27 27 23 18 20 21 23 25 26 28 30 30 30 28 29 32 34 35 36 39 40 41 41
20 18 13 9 11 10 14 19 20 20 17 18 22 22 26 28 27 25 22 21 21 24 25 23 21 27 26 26 28 28 29 30 31 32 33 33 33 37 41 43 42 43 45
21 20 17 13 9 11 14 16 19 22 19 20 21 21 22 21 22 22 22 23 25 25 26 26 24 26 27 29 31 31 33 35 36 38 39 41 43 43 44 43 44 47 49
24 23 21 20 18 17 18 19 20 21 22 22 22 22 23 22 22 24 25 25 27 29 31 32 31 33 35 36 37 38 38 37 39 40 41 47 46 46 48 51 53 54 55
27 27 25 24 24 24 24 23 23 23 23 23 24 25 25 25 27 29 30 30 32 33 34 36 38 39 38 37 38 36 41 40 46 47 48 46 51 55 56 58 60 62 60
29 31 30 28 27 29 30 28 27 27 27 27 27 27 27 29 30 32 34 34 35 37 38 39 40 41 41 43 45 46 47 51 51 52 54 58 60 63 65 67 66 70 72
29 34 34 33 32 31 32 31 32 30 29 28 28 28 29 29 30 32 34 35 36 38 39 41 44 46 49 51 52 53 54 56 57 58 60 62 63 65 66 68 69 71 73
35 30 34 40 39 37 36 35 35 34 33 31 30 30 31 33 35 36 37 38 40 43 46 49 51 52 53 55 57 57 59 62 64 65 65 66 68 69 71 72 74 76 78
34 31 39 42 46 44 40 39 39 40 40 38 37 38 40 41 43 45 46 45 47 50 52 53 55 56 58 60 63 64 65 66 68 70 72 72 73 75 76 77 80 80 82

GFSMA_500_spd_087.txt.gz
Wind_Speed
23 24 22 20 18 18 19 18 16 23 30 30 27 29 26 27 28 26 31 30 29 27 26 26 24 22 19 20 20 18 18 18 16 16 16 16 14 13 13 12 12 14 16
22 25 22 22 20 18 20 20 18 25 27 25 31 30 29 26 28 27 33 30 29 28 27 25 24 24 24 22 19 18 18 16 16 16 16 16 15 14 14 14 15 16 18
21 25 24 23 21 21 21 18 21 25 29 27 33 32 29 23 24 26 33 31 27 29 30 26 25 25 25 27 25 23 20 17 16 15 16 17 17 17 16 16 17 18 20
22 22 24 24 23 23 25 20 20 22 26 31 35 36 28 24 25 26 27 30 31 28 27 26 25 25 30 28 25 26 21 19 20 17 18 19 19 20 19 20 20 21 23
21 20 24 23 22 23 23 23 21 23 27 33 35 38 33 29 27 25 27 28 31 30 28 26 25 28 27 27 25 23 22 21 22 21 21 22 22 23 23 23 24 26 27
19 20 22 22 22 22 24 22 24 25 27 33 36 36 32 30 26 25 28 24 26 27 28 25 26 28 24 26 26 27 24 23 25 24 25 25 25 26 26 26 27 29 34
17 20 20 22 24 24 25 24 22 25 28 38 43 36 34 33 22 24 29 24 26 29 28 27 25 24 24 25 27 27 27 25 27 27 27 27 28 29 30 30 32 34 35
22 22 22 23 26 26 27 24 24 27 30 37 41 33 30 31 22 24 29 28 27 28 29 28 26 26 26 27 27 28 28 28 28 29 29 29 30 32 33 33 36 39 41
22 19 21 25 26 27 27 28 27 28 34 31 38 38 35 28 26 27 29 29 29 28 31 31 31 29 29 29 29 31 32 31 33 33 33 35 38 39 38 39 40 41 43
18 19 18 21 24 26 27 28 28 24 33 34 33 35 40 32 30 29 29 27 27 29 28 31 30 28 28 28 26 26 29 31 35 35 36 38 37 40 41 42 43 43 45
16 18 21 23 26 24 26 28 30 29 36 36 35 32 37 39 29 25 28 26 23 25 26 25 24 24 25 26 28 30 30 32 34 32 32 32 33 35 38 40 40 40 41
13 17 20 22 22 28 30 27 32 36 35 30 35 32 33 35 33 34 35 27 26 25 24 24 25 25 25 26 29 31 31 30 31 29 31 31 29 31 33 36 37 37 38
13 16 17 17 16 24 24 25 29 36 30 30 33 35 36 33 30 32 30 24 24 24 23 22 24 26 27 27 28 28 30 29 28 28 26 26 27 31 32 32 32 32 33
16 16 16 16 16 17 20 27 25 34 31 29 27 29 30 29 29 27 25 24 24 24 22 22 24 24 24 25 26 27 26 27 31 29 28 28 30 28 29 30 29 31 32
19 17 15 14 17 12 16 29 26 29 32 31 26 27 31 33 30 26 24 24 23 22 22 24 22 22 26 27 29 31 31 32 30 30 30 32 29 25 26 25 25 25 25
19 19 16 13 16 10 17 28 31 31 34 31 26 28 29 31 28 25 23 24 25 23 19 22 22 22 25 28 29 30 29 29 28 28 28 27 25 27 27 30 31 31 32
20 19 16 14 14 13 13 24 28 29 28 31 25 27 27 28 28 27 27 26 24 25 26 25 26 25 25 24 26 27 26 25 25 26 26 28 29 31 33 34 35 36 35
20 19 16 14 11 10 12 18 20 21 22 26 23 21 20 23 23 27 28 27 26 29 30 28 27 28 24 25 26 27 26 24 24 27 28 30 31 32 34 35 36 37 37
19 18 17 13 11 8 9 11 15 19 21 20 23 25 24 29 29 27 27 28 30 31 29 24 22 25 25 27 28 26 25 26 27 28 29 30 31 34 37 38 40 41 41
19 18 17 15 13 12 12 12 16 22 20 19 20 26 27 29 30 29 30 29 27 27 27 24 25 28 26 29 28 29 30 31 31 34 37 38 37 37 39 39 41 43 44
19 17 17 17 17 16 15 17 18 23 27 27 25 26 24 23 23 26 26 27 29 29 29 28 28 29 30 31 33 35 36 37 39 40 39 40 40 43 45 48 48 47 48
20 20 19 19 20 21 21 20 20 23 25 27 26 27 28 27 27 28 27 28 30 31 32 33 33 33 33 34 36 38 40 41 42 43 45 46 49 51 51 53 55 57 60
25 23 22 23 24 26 27 28 28 28 28 28 29 29 29 29 30 30 32 33 35 36 37 37 37 37 37 36 37 40 42 45 47 48 48 50 52 54 55 57 58 60 60
31 28 27 27 28 29 32 34 34 34 35 35 35 35 35 35 35 35 36 37 37 37 36 36 37 39 40 41 43 45 48 50 51 52 54 56 57 58 59 61 64 66 67
37 36 32 33 30 31 37 36 38 38 39 39 39 39 39 39 39 39 38 38 37 38 37 39 41 43 45 47 49 52 53 54 56 57 58 60 62 63 65 66 68 70 71
41 41 39 35 38 39 33 38 42 42 44 43 43 43 43 43 42 42 41 42 44 45 45 46 47 49 51 53 55 55 57 59 60 61 62 64 66 68 71 72 73 75 77

GFSMA_500_spd_090.txt.gz
Wind_Speed
26 28 28 26 22 23 23 21 20 14 22 30 30 28 23 27 28 23 25 29 27 27 27 25 25 23 21 20 20 22 20 18 17 19 13 11 12 14 14 11 13 14 14
27 27 27 25 23 24 23 22 19 16 18 28 31 29 24 26 26 26 26 29 27 27 26 25 23 23 22 22 23 21 18 16 15 13 12 12 12 12 12 13 14 14 16
26 27 26 27 25 23 25 24 19 19 20 29 26 30 29 28 27 27 30 30 27 26 26 25 25 23 22 24 25 24 23 22 18 15 14 14 14 15 15 16 17 18 19
25 25 26 28 29 26 26 25 25 20 22 25 29 29 29 31 29 28 32 29 28 28 28 26 27 26 25 25 24 30 26 25 22 19 18 17 18 18 18 19 20 21 22
25 25 27 28 27 25 25 26 26 23 22 24 26 29 34 30 27 25 29 27 29 30 29 26 24 24 26 25 26 26 24 22 22 21 20 21 22 21 21 21 22 23 25
25 25 25 26 25 25 26 25 25 26 24 25 27 31 37 35 33 30 30 26 27 29 30 30 28 28 28 25 26 25 25 23 24 23 22 23 24 24 24 24 24 25 27
25 23 20 21 23 25 26 24 25 22 25 25 28 33 46 38 37 36 31 27 27 30 28 29 29 27 27 29 28 25 26 26 27 26 24 24 26 28 27 28 28 28 30
25 21 21 21 25 27 28 27 25 26 26 25 30 37 42 39 40 36 32 30 29 31 30 30 28 29 29 27 26 25 26 24 27 27 26 25 27 30 32 33 33 33 34
24 22 21 22 26 28 27 29 27 28 27 27 30 39 42 36 38 35 30 32 30 32 31 30 31 32 32 32 29 30 29 26 27 27 28 29 31 34 34 37 40 41 40
23 21 20 21 20 21 27 30 30 29 30 27 25 44 39 32 31 35 37 35 34 33 33 31 34 35 34 36 33 32 29 26 28 29 30 31 32 34 36 34 33 34 33
21 19 21 20 19 21 23 29 30 29 31 26 27 33 31 38 36 36 33 32 33 34 34 31 33 34 34 35 32 29 30 30 28 29 30 31 32 33 30 30 30 29 33
18 19 19 18 19 21 25 30 33 30 30 27 30 30 34 31 34 36 38 35 34 33 32 32 31 32 30 28 28 29 30 30 30 30 29 29 28 27 27 27 29 32 32
17 16 16 17 16 18 23 28 30 29 30 31 29 30 31 34 31 33 35 32 31 34 35 30 30 29 29 29 29 29 30 31 30 30 29 27 28 26 27 30 31 30 31
18 18 16 14 18 20 25 25 26 29 32 34 31 32 29 34 32 31 33 33 33 36 36 33 31 28 27 29 30 31 31 30 28 26 26 29 29 29 29 31 32 30 29
20 19 17 18 19 20 23 21 22 27 29 28 36 30 31 34 35 32 31 30 33 32 30 30 28 28 26 27 29 30 30 31 32 31 32 30 29 30 31 33 31 31 28
20 15 17 20 20 20 22 19 24 26 26 30 32 33 30 30 31 30 27 30 27 25 26 27 26 26 26 28 29 30 29 30 31 33 33 30 30 31 31 31 32 32 32
19 16 18 18 18 17 19 17 23 29 29 28 35 32 28 29 31 30 31 29 24 25 28 28 28 25 25 28 28 28 27 28 28 29 30 31 31 31 31 31 32 32 32
19 18 18 17 17 16 12 11 23 27 28 32 30 30 30 29 31 29 28 28 29 29 30 29 29 30 31 31 30 28 28 29 29 29 30 29 30 31 31 31 32 32 33
22 20 20 17 16 14 11 8 13 28 27 27 29 35 26 24 25 27 29 28 31 32 34 30 30 31 32 31 30 28 27 28 30 31 31 32 32 33 34 36 37 37 38
22 20 19 17 15 14 11 8 10 20 22 24 25 28 28 29 28 31 33 33 34 32 32 30 31 31 31 31 29 28 31 32 33 33 34 36 35 38 39 41 40 38 40
20 20 18 16 15 15 13 9 11 14 19 24 21 23 25 29 31 28 30 32 33 34 33 34 30 31 32 31 31 30 32 35 36 38 38 40 42 39 47 46 45 45 50
22 21 19 17 17 16 15 14 13 15 19 25 25 24 24 29 34 33 30 32 33 32 32 32 32 32 32 33 35 36 37 38 39 40 42 44 45 47 49 51 52 53 54
27 24 24 21 20 20 20 20 20 20 20 24 27 28 26 29 31 31 33 33 34 34 35 36 35 36 37 38 39 41 42 42 44 44 45 48 51 52 54 56 57 57 59
32 29 28 26 25 24 25 25 24 25 27 29 30 31 31 32 33 34 36 36 38 38 39 39 40 41 42 43 43 43 46 46 48 49 50 54 55 57 58 59 60 61 62
38 39 34 33 31 30 29 29 28 30 33 33 34 36 38 38 38 39 40 41 41 46 44 44 45 45 45 46 47 47 49 51 52 54 56 57 58 59 60 61 62 63 65
43 45 42 39 38 38 37 36 37 35 37 40 38 40 41 43 44 45 47 47 48 49 49 48 49 49 50 52 53 53 54 56 58 60 60 61 61 62 62 65 66 68 69

GFSMA_500_spd_093.txt.gz
Wind_Speed
39 36 35 29 24 26 29 26 26 25 23 22 29 32 29 23 24 25 26 26 25 23 21 21 21 21 20 21 21 20 20 19 19 19 18 21 26 13 13 16 20 17 10
39 36 33 26 25 26 28 26 25 24 23 19 26 31 32 26 26 27 27 28 26 25 23 23 23 22 23 21 20 22 21 18 18 16 18 13 9 14 15 14 13 12 16
39 35 31 25 27 27 28 27 25 24 21 22 15 32 30 27 25 28 28 32 26 26 27 25 25 24 24 23 23 23 23 22 18 21 17 16 16 17 18 18 18 18 19
37 33 29 25 27 27 28 28 26 24 23 22 20 22 30 30 25 27 29 35 29 27 27 27 25 25 24 25 24 23 23 23 26 24 23 21 19 19 20 20 21 22 22
35 31 29 27 28 29 29 31 29 27 26 26 24 30 27 26 30 29 30 35 29 29 29 28 27 27 26 27 26 24 24 24 24 22 23 24 23 22 22 22 23 23 25
31 29 28 28 29 31 30 31 29 27 28 29 27 29 32 34 29 31 31 35 31 28 28 29 28 26 25 26 26 26 26 25 25 23 23 24 22 23 22 24 25 26 28
31 28 27 30 28 30 30 31 30 28 29 31 28 28 28 30 36 35 36 33 29 28 27 30 31 31 28 27 28 29 28 28 26 24 25 27 26 24 24 25 26 28 31
31 26 29 28 28 27 28 29 29 28 29 31 31 29 29 28 35 37 36 34 33 30 27 31 34 34 33 33 32 30 29 29 25 26 27 29 29 27 26 27 29 33 33
29 27 29 27 28 27 27 27 28 28 31 34 32 31 30 31 29 36 37 38 37 33 28 31 35 37 35 35 32 31 31 30 28 27 28 28 30 28 29 30 33 34 34
29 29 27 27 26 25 23 24 28 28 33 34 32 33 31 35 39 40 40 40 40 35 32 32 35 36 36 36 34 34 35 32 32 30 29 30 31 32 32 32 34 35 35
30 28 26 25 23 23 22 22 22 29 34 35 34 34 31 34 36 41 42 38 38 32 33 34 37 37 37 37 36 36 37 37 33 32 29 29 30 30 31 32 33 30 28
31 26 25 24 22 23 22 21 23 29 34 34 35 35 30 29 32 34 31 36 35 36 38 44 36 37 39 37 35 36 36 37 33 29 30 32 31 31 31 31 29 27 28
29 25 23 22 21 21 19 22 23 25 31 35 35 35 24 25 31 34 37 36 33 35 36 42 39 40 37 35 36 35 31 29 29 29 30 31 31 32 32 30 29 29 30
26 24 22 21 20 17 22 24 25 27 28 32 33 34 35 29 30 35 33 32 29 35 39 38 35 36 39 38 32 29 30 29 29 30 32 33 32 32 31 30 31 32 33
25 25 22 23 23 22 21 23 26 26 28 32 32 35 31 31 27 29 34 30 28 32 31 36 35 39 39 35 33 28 31 32 31 30 31 33 34 33 33 32 33 33 32
27 26 21 23 26 24 22 21 25 22 25 32 32 35 32 30 29 31 32 31 33 32 33 32 34 37 35 33 30 29 30 30 32 34 36 36 35 36 35 33 32 32 32
29 27 22 24 24 22 21 20 26 20 29 32 32 30 30 32 30 30 33 35 32 28 29 28 27 29 29 30 30 30 32 32 33 36 37 37 35 32 32 31 30 31 32
30 26 26 25 23 22 18 18 21 18 24 30 29 28 32 31 32 32 30 30 27 27 26 22 26 29 31 33 30 29 31 34 39 35 34 34 32 31 32 31 32 31 31
29 28 28 26 22 21 15 15 16 14 25 30 29 33 37 35 31 30 31 32 28 26 24 26 28 31 32 32 33 33 34 38 36 34 33 33 33 34 34 32 32 33 36
31 26 28 25 20 19 14 10 14 10 24 27 30 30 33 33 30 28 28 29 29 29 32 32 33 34 35 34 35 35 36 35 33 34 34 35 34 34 35 36 37 40 43
30 24 27 23 21 17 15 11 11 13 11 25 26 28 30 36 34 28 30 30 29 32 36 37 34 34 35 36 37 37 34 34 36 36 35 37 36 38 40 42 44 46 45
29 23 24 21 21 19 17 14 12 12 11 12 16 23 24 28 32 32 35 34 27 26 33 38 37 38 37 38 37 35 37 38 39 40 40 40 41 43 45 47 47 49 50
31 26 24 23 22 22 21 19 16 15 16 15 17 22 20 23 24 29 34 35 34 35 35 37 36 35 36 38 39 40 40 41 42 44 45 45 47 48 48 50 52 53 55
32 30 29 28 27 25 25 25 23 20 20 21 22 23 25 27 27 30 33 35 36 36 35 38 38 39 40 42 42 43 45 45 47 47 49 50 50 52 54 55 56 58 60
37 34 33 32 32 31 31 30 28 25 25 25 26 27 28 30 32 34 35 37 38 39 40 41 43 45 45 45 47 47 48 49 50 51 53 54 55 57 59 61 63 66 67
36 37 36 36 37 38 38 37 35 32 31 32 31 30 31 35 37 38 40 41 42 43 46 48 49 49 51 50 52 52 53 54 54 56 57 59 62 63 65 67 70 71 70

GFSMA_500_spd_096.txt.gz
Wind_Speed
38 37 38 36 31 35 36 33 28 27 25 24 26 26 27 27 31 27 27 23 24 23 24 23 23 21 19 20 21 20 19 19 17 15 17 20 19 21 26 28 22 21 23
38 38 37 34 32 35 35 31 27 26 25 25 26 29 27 29 33 30 29 26 25 23 22 22 23 21 21 21 20 20 21 20 19 17 16 17 19 17 13 13 14 15 13
39 38 37 33 32 33 32 29 26 25 26 25 25 26 22 35 33 31 29 31 29 27 25 24 24 23 23 23 22 21 22 21 21 18 19 19 17 16 16 17 18 18 19
40 37 36 32 31 31 30 28 26 26 27 26 27 20 21 31 33 33 30 30 27 25 26 27 25 25 25 26 24 22 23 22 19 22 22 24 22 21 21 21 20 20 20
39 38 34 30 30 30 29 28 27 28 28 26 27 21 29 31 31 29 31 29 27 30 28 26 26 25 27 27 25 25 23 21 22 23 22 21 21 23 23 22 22 22 22
38 37 33 29 28 29 29 29 29 29 29 28 29 25 24 24 33 32 29 33 33 36 31 30 31 29 29 29 27 28 26 26 24 24 24 24 22 23 25 24 24 24 24
36 36 31 28 27 27 28 31 31 31 30 29 30 26 27 27 28 29 29 31 36 34 29 31 32 31 31 31 30 29 27 25 27 27 25 25 24 24 25 26 26 26 26
37 36 29 27 27 28 30 32 30 30 30 32 29 27 31 30 32 33 38 31 37 32 28 30 31 32 32 33 32 30 30 29 29 29 29 26 26 28 28 29 28 27 28
43 36 29 27 29 31 30 31 28 29 29 32 30 30 31 32 30 32 36 35 37 37 34 31 31 31 31 35 36 35 33 32 30 31 28 26 26 26 29 31 30 31 31
39 28 27 27 29 29 30 29 29 30 30 30 30 32 32 31 33 33 36 33 36 37 35 33 34 33 30 37 39 37 35 34 33 33 30 28 27 28 30 32 33 33 32
39 26 24 28 27 28 28 28 28 27 28 30 29 33 35 34 33 32 37 32 33 36 36 38 38 37 31 35 38 39 36 35 34 35 34 32 32 31 29 30 31 31 31
29 24 29 27 26 26 27 28 27 26 25 26 29 33 36 37 33 34 37 38 40 41 40 41 40 40 33 34 36 38 37 37 36 37 36 33 32 29 29 32 32 32 31
28 29 31 25 25 26 27 27 25 25 24 24 30 33 37 38 35 34 36 35 43 38 42 44 40 40 33 41 35 37 40 38 35 35 32 28 29 29 30 30 31 31 30
30 33 29 25 25 25 24 22 23 25 26 29 28 33 40 39 33 30 28 34 33 32 32 40 44 40 37 46 42 39 38 35 35 30 27 28 28 30 31 32 32 31 30
31 31 29 25 25 25 24 24 23 23 26 30 32 34 38 38 31 34 28 26 24 31 34 35 37 35 37 36 38 37 39 36 30 29 29 29 31 32 31 31 32 34 34
32 31 27 27 25 24 27 27 26 28 29 31 30 33 32 35 34 34 29 24 26 29 33 30 31 31 34 35 36 38 38 34 30 31 29 29 31 33 34 35 35 35 35
31 31 28 27 24 25 25 26 28 28 30 31 31 33 32 32 35 36 31 28 29 29 31 29 31 33 35 36 35 32 36 32 32 31 30 31 32 32 35 37 35 34 34
34 32 27 25 27 25 25 27 28 27 31 25 30 28 32 31 34 43 33 28 29 31 31 29 29 27 28 28 28 27 28 31 31 29 30 31 34 36 36 35 33 33 31
34 30 26 28 29 28 27 28 25 26 31 21 25 39 27 28 35 31 28 31 30 28 26 25 19 20 21 23 25 28 30 30 32 33 33 35 37 37 36 35 33 34 33
33 30 29 29 29 28 28 28 23 23 27 16 22 30 30 28 32 28 31 26 30 28 28 25 23 23 25 27 30 32 33 33 35 36 36 37 36 36 35 36 36 35 37
35 34 31 26 28 28 28 28 21 22 24 15 20 28 32 29 28 31 32 29 30 28 27 28 30 28 32 33 33 36 37 35 36 36 36 34 36 36 38 37 38 39 41
39 36 30 26 27 27 27 27 23 20 20 14 12 24 24 27 29 29 32 28 27 30 30 30 29 34 37 39 36 36 37 39 38 38 37 38 38 38 40 41 42 44 46
40 36 30 28 25 25 25 25 23 21 16 16 17 13 16 24 29 30 31 32 31 32 34 34 32 33 33 34 36 39 39 40 41 40 41 41 42 44 45 46 47 50 50
40 38 35 33 29 25 24 24 24 22 22 19 18 19 21 20 22 28 27 27 30 27 33 36 34 33 37 36 37 39 40 42 42 43 45 47 48 49 49 51 51 52 53
43 40 38 36 33 29 28 28 28 27 26 25 25 24 25 24 24 26 28 28 31 35 37 40 44 40 40 39 41 42 43 44 46 47 49 51 52 54 55 55 56 57 58
35 39 37 40 38 35 34 34 32 31 31 30 30 29 29 29 29 30 31 33 35 36 39 40 42 43 44 44 45 47 47 49 50 52 53 55 57 58 60 61 62 63 65

GFSMA_500_spd_099.txt.gz
Wind_Speed
36 41 40 35 33 36 34 32 30 29 29 27 24 25 27 26 25 24 30 25 24 24 25 27 26 23 22 21 20 19 21 21 19 17 15 15 16 18 18 20 24 24 23
39 40 42 40 34 36 33 32 28 27 29 26 25 26 26 28 24 28 31 27 26 27 27 28 27 25 25 25 22 21 24 23 21 19 18 16 15 16 19 21 21 19 14
40 43 45 45 35 36 33 32 26 26 28 27 27 28 27 27 27 26 36 29 27 28 30 30 28 26 25 24 23 23 23 22 21 22 20 17 16 17 17 17 17 17 17
41 46 44 45 39 35 32 30 26 26 27 28 28 28 28 29 24 30 37 33 32 32 31 25 25 27 27 25 25 26 25 22 22 22 19 19 20 21 20 20 20 20 21
44 43 43 42 41 35 32 30 25 26 27 29 31 28 28 26 31 32 39 35 33 32 29 31 29 26 26 28 27 27 25 24 22 20 22 22 22 21 22 23 24 23 22
44 41 43 41 43 35 31 26 24 25 28 30 31 29 29 25 26 30 32 40 34 32 31 33 31 30 28 28 29 28 27 25 23 23 24 24 24 23 23 25 26 26 25
42 41 42 42 43 36 30 26 24 27 30 31 33 28 29 26 25 23 35 34 32 29 29 31 30 28 29 30 30 29 30 29 28 27 27 26 26 24 25 24 24 26 25
38 39 41 42 41 37 29 25 25 29 30 32 32 28 31 27 24 25 25 33 35 38 36 36 32 31 31 34 33 33 31 33 32 30 29 27 27 27 25 24 26 28 27
42 45 43 42 40 36 27 26 27 31 31 31 28 29 31 27 25 29 29 31 32 40 40 41 34 33 31 32 34 34 34 34 33 32 30 28 28 24 24 26 27 30 29
48 46 48 45 42 34 26 28 31 32 30 29 28 28 30 28 26 31 29 29 31 33 33 38 38 33 32 32 33 35 35 38 36 33 31 30 28 27 25 28 29 29 30
47 49 56 50 39 29 27 31 32 31 29 29 29 29 31 30 30 32 33 34 35 38 36 42 38 39 36 34 36 33 36 37 39 37 34 32 32 30 30 31 32 30 30
45 48 37 50 27 24 28 31 29 28 27 29 28 26 30 31 31 34 33 37 36 38 38 36 38 39 37 36 39 36 33 35 36 35 36 39 34 34 33 31 30 28 28
37 31 32 29 22 24 26 28 28 26 28 27 26 27 29 29 33 34 38 36 38 35 41 35 33 37 41 44 45 41 31 33 33 35 38 40 34 33 32 28 26 28 28
38 33 30 23 23 25 24 28 27 27 28 24 26 28 28 30 35 37 38 39 39 39 44 35 41 51 43 41 43 45 34 35 34 36 41 39 34 30 27 27 26 27 29
42 40 32 27 27 24 25 29 27 25 24 23 25 27 29 32 35 36 38 36 37 35 37 38 40 38 43 44 42 42 35 35 41 44 39 33 29 29 26 28 29 28 29
41 36 33 24 26 24 26 29 28 27 26 25 26 28 29 32 35 39 40 36 36 31 27 32 33 30 33 39 39 43 38 34 39 38 34 32 30 29 29 29 29 31 34
40 45 28 27 27 26 29 30 28 29 28 27 28 30 32 36 34 36 39 38 39 35 29 27 28 33 32 32 35 40 36 34 33 36 33 35 31 29 29 29 31 32 34
43 30 27 28 30 27 30 29 29 28 27 28 29 33 38 35 37 38 40 41 40 31 27 27 30 32 31 31 32 35 34 33 34 33 33 32 31 28 29 31 33 35 35
41 33 31 31 29 29 32 31 29 27 27 28 31 35 35 35 38 38 38 40 40 38 26 30 31 34 33 31 33 34 33 29 28 28 29 31 29 30 32 35 36 35 34
45 35 33 33 30 31 32 30 29 28 29 30 29 35 26 26 32 34 35 37 41 39 33 33 28 27 27 29 30 28 27 27 28 29 30 31 31 34 37 38 39 35 36
42 37 35 35 31 30 30 28 28 28 27 28 30 25 25 25 31 31 34 36 37 36 32 30 26 26 26 26 24 26 27 28 31 33 34 35 37 39 40 38 38 37 38
46 40 38 37 35 30 26 25 28 28 27 26 27 20 19 28 30 29 30 33 32 32 28 32 31 29 26 30 28 31 34 35 35 37 37 38 39 40 39 40 40 41 40
48 42 40 41 37 29 24 24 26 26 26 25 25 22 20 22 22 27 31 33 35 33 31 28 29 31 31 30 31 36 41 43 38 38 41 42 42 41 43 43 43 43 42
48 42 43 42 38 34 29 23 23 24 25 25 25 24 18 20 18 22 27 26 26 29 34 33 34 33 33 35 36 34 34 32 36 38 40 43 46 44 45 45 46 47 48
48 51 45 45 42 36 33 28 26 26 25 26 25 25 24 23 24 24 15 18 27 28 33 33 32 34 37 39 38 36 39 39 40 42 43 44 45 46 48 50 51 53 54
48 54 49 47 45 41 37 35 32 29 29 28 29 27 27 28 28 26 25 27 31 31 30 32 34 34 39 41 45 48 46 44 46 47 46 48 49 50 51 52 56 58 59

GFSMA_500_spd_105.txt.gz
Wind_Speed
39 40 40 39 40 40 34 34 32 31 28 29 29 29 27 28 28 26 28 25 27 27 27 32 31 36 37 32 30 29 25 28 27 24 20 16 13 12 11 12 14 15 16
42 40 41 41 43 41 39 35 35 33 33 30 30 30 31 30 29 28 28 23 27 25 27 32 32 40 34 34 32 30 27 25 28 26 23 19 16 14 14 13 14 15 18
39 41 41 44 45 46 41 41 39 37 35 36 31 32 31 32 30 30 28 25 26 25 26 34 34 45 35 35 32 29 27 27 26 27 24 21 19 17 16 15 15 16 16
47 47 46 43 47 50 44 44 43 45 40 38 36 32 32 33 32 32 29 28 28 26 29 35 34 40 32 34 32 29 30 29 28 29 26 23 22 19 19 17 17 18 20
51 51 48 47 49 51 49 49 45 46 47 40 38 35 31 34 34 33 31 30 30 33 33 36 43 35 39 35 33 32 31 31 28 29 27 26 24 22 21 20 20 19 20
54 54 52 47 49 48 50 49 49 48 49 44 40 36 32 34 36 32 31 32 33 34 34 38 41 39 49 37 38 36 31 29 28 29 27 27 26 24 24 22 21 20 21
59 59 57 49 48 44 46 50 53 51 51 47 43 37 35 36 36 33 30 31 33 34 36 40 41 36 36 38 35 31 30 29 28 29 29 28 27 26 26 24 24 22 22
66 66 59 51 52 50 51 48 51 51 51 48 45 39 36 36 35 32 31 32 33 31 38 40 34 38 34 31 36 32 27 28 27 30 29 29 29 29 29 27 26 25 24
66 60 68 52 53 50 44 46 50 53 52 48 44 40 37 37 36 33 32 31 31 28 30 36 34 30 34 34 34 35 30 27 30 30 30 31 31 31 32 30 28 29 26
62 62 58 60 54 52 48 47 50 51 51 48 44 39 38 38 36 31 31 29 30 29 31 42 38 34 30 29 33 35 30 30 32 31 31 32 32 33 34 32 32 30 28
54 52 51 56 55 54 56 54 57 51 51 46 43 39 40 39 36 31 29 30 30 28 27 40 40 39 37 36 31 30 32 33 32 33 34 32 33 34 35 35 33 30 32
46 45 50 55 54 62 57 57 60 56 52 46 44 40 41 42 36 32 30 30 31 30 30 25 40 43 42 42 40 38 37 38 35 33 35 34 34 36 35 36 36 35 36
43 41 46 51 59 59 53 44 54 51 45 46 43 42 43 39 38 32 31 32 31 31 31 28 29 27 41 38 40 39 36 41 41 38 38 38 34 36 35 37 39 39 37
42 38 42 46 50 53 41 45 44 39 45 40 45 45 43 39 38 33 30 30 32 32 33 31 35 30 33 32 36 40 42 46 44 42 41 42 44 36 38 37 38 38 38
40 38 42 44 46 46 47 43 46 47 38 40 42 45 40 39 37 33 30 30 31 34 35 35 35 39 35 37 38 38 42 45 48 45 42 40 41 44 40 38 40 37 38
35 37 39 40 42 45 43 42 41 38 44 38 45 45 37 37 35 33 31 29 31 31 30 36 37 38 40 42 38 41 38 47 42 44 46 43 42 43 49 44 40 41 42
36 38 34 40 46 41 41 39 33 46 45 46 43 37 35 34 31 30 30 30 30 32 30 34 36 39 39 41 43 41 43 43 44 44 49 50 50 49 47 46 44 42 37
37 40 33 36 40 40 36 31 35 41 40 37 37 36 33 33 31 30 31 32 31 34 34 33 34 40 41 41 40 41 42 44 47 51 51 51 50 50 44 43 39 42 36
38 36 37 34 37 36 41 35 32 20 30 25 31 30 31 32 33 33 34 34 36 37 37 39 37 37 39 41 40 42 40 43 46 46 44 44 45 45 40 43 38 37 37
38 38 38 34 33 31 34 34 35 35 30 32 31 32 32 33 34 35 37 37 38 39 41 43 38 40 35 41 40 42 41 39 39 36 37 38 39 41 36 38 37 39 39
34 34 31 31 34 36 30 33 36 37 36 31 32 33 33 32 34 35 36 37 36 41 40 37 38 38 39 40 38 37 35 36 39 37 39 38 38 37 39 39 39 35 32
27 32 35 36 35 37 29 32 40 38 36 29 34 34 34 34 35 34 35 32 38 38 31 37 40 42 42 38 38 39 39 36 38 38 39 36 36 36 36 37 34 32 32
30 34 37 32 33 32 31 29 30 38 36 33 35 35 32 34 33 33 29 30 31 30 34 30 34 33 38 42 40 40 36 39 39 36 33 32 31 32 30 29 31 32 35
33 32 36 39 38 33 31 35 33 40 39 36 34 31 32 34 35 32 27 27 22 29 32 33 32 38 39 41 40 38 35 38 35 32 30 32 34 35 36 37 38 38 40
29 31 37 37 37 34 38 37 43 43 43 38 35 31 33 33 33 31 28 27 23 19 33 40 36 36 41 39 40 41 39 41 38 37 35 35 35 36 36 38 39 39 40
28 35 30 31 47 43 40 39 45 48 47 42 38 34 32 31 31 32 31 30 27 21 18 26 35 36 36 37 37 40 39 39 41 40 38 39 42 42 42 42 44 45 42

GFSMA_500_spd_108.txt.gz
Wind_Speed
37 38 37 39 37 40 38 39 36 36 33 29 25 27 25 23 24 25 26 27 28 29 28 32 27 23 33 35 33 32 31 30 27 27 23 20 16 12 12 11 10 9 11
38 37 40 40 43 39 39 39 40 38 37 32 29 28 27 27 26 27 27 29 28 31 30 31 27 21 32 37 39 33 32 32 28 30 26 23 20 17 15 14 13 11 11
39 37 39 40 40 38 38 40 41 42 42 38 34 33 30 29 30 29 30 31 28 32 31 30 28 25 29 36 47 33 33 32 29 31 29 26 23 21 18 16 15 14 14
44 41 42 41 44 44 41 39 41 43 44 42 41 38 36 32 31 31 32 32 30 31 33 32 27 28 31 34 34 36 36 34 32 30 33 29 26 24 21 19 17 17 16
46 44 43 41 45 48 45 43 44 45 47 45 46 43 41 37 34 34 34 33 31 34 32 34 30 28 30 38 30 35 36 34 33 32 32 30 29 26 23 21 20 19 18
46 48 47 45 46 46 47 47 44 46 48 49 48 47 49 43 38 35 36 34 33 35 34 34 34 35 32 36 41 38 35 36 34 31 30 30 30 28 25 24 23 21 20
47 49 48 49 46 52 54 48 47 47 49 50 51 49 50 45 44 38 36 38 36 37 36 34 35 35 36 36 46 43 36 38 34 31 31 30 31 29 27 26 25 24 21
49 50 51 53 55 64 64 53 50 45 48 49 48 49 52 44 42 39 37 39 38 38 38 35 35 39 41 40 42 41 39 36 36 32 30 31 31 29 29 28 26 24 24
56 57 59 60 58 69 63 50 55 51 50 54 53 50 53 45 41 40 39 39 39 38 38 37 33 41 37 39 43 45 39 37 38 36 31 30 31 31 30 30 29 26 27
59 63 65 68 66 66 67 64 48 47 43 44 48 47 54 43 38 40 39 40 39 37 37 35 31 33 28 41 37 42 42 42 37 33 32 31 30 31 29 31 30 28 29
66 70 69 72 72 69 71 69 67 55 54 47 48 49 51 43 37 40 39 39 36 37 37 35 29 36 29 33 37 38 37 43 36 34 33 30 31 31 30 31 32 31 30
58 60 54 57 64 64 67 65 69 68 50 49 47 57 46 47 40 42 40 34 35 35 36 34 27 27 28 30 36 31 33 39 39 35 34 31 33 32 31 30 32 33 31
54 55 60 45 46 46 49 52 54 51 49 47 51 55 48 56 47 41 38 36 33 36 35 34 29 28 24 40 35 34 33 38 36 37 34 34 31 31 31 31 33 34 34
51 45 29 34 40 42 43 51 53 50 53 49 51 55 57 59 48 40 37 36 33 36 36 33 30 27 27 28 31 45 40 45 43 39 40 37 36 33 34 35 35 37 37
42 41 38 41 46 42 43 48 56 55 51 56 53 50 55 53 45 41 39 34 35 32 33 31 33 29 32 30 32 30 42 40 34 40 41 40 40 39 38 38 39 41 39
36 39 42 43 42 42 42 43 51 48 49 50 50 41 35 43 45 40 40 34 36 35 32 32 34 35 29 32 32 34 29 31 33 36 39 43 43 42 41 41 40 38 44
37 39 41 39 41 38 40 41 42 43 35 47 42 44 37 38 43 42 35 35 36 36 31 30 32 33 35 30 37 37 39 37 39 40 38 39 41 40 44 45 45 39 39
35 41 39 37 36 34 32 36 39 39 40 42 48 46 37 38 42 40 38 36 35 37 34 32 33 31 32 36 40 37 40 41 44 45 40 38 38 39 42 49 49 49 49
26 30 34 35 37 37 33 36 36 34 37 41 42 31 39 37 41 40 38 35 36 36 35 32 31 32 35 35 37 41 43 43 42 39 40 40 43 48 49 48 54 55 51
31 32 36 36 34 38 29 30 33 28 28 26 29 29 31 36 40 38 36 36 36 37 36 36 36 35 36 38 41 44 41 41 39 38 37 39 42 46 50 49 47 47 47
33 33 28 31 31 39 31 26 28 33 35 30 33 31 32 36 38 37 38 39 40 40 39 39 39 40 40 42 45 44 39 40 37 36 36 39 41 41 42 42 41 41 42
23 30 28 37 31 33 28 29 30 31 28 26 35 30 32 37 37 37 37 37 38 38 39 40 41 43 44 38 41 45 39 40 36 34 36 33 34 39 38 39 38 38 40
32 27 25 35 42 28 32 34 31 32 29 33 36 32 33 37 35 36 39 38 37 39 40 39 42 41 36 37 42 42 37 36 35 38 41 39 36 40 39 39 37 37 36
25 23 27 26 30 33 32 35 34 30 35 36 36 35 35 36 35 38 40 37 35 39 35 34 31 32 36 31 36 40 37 40 35 38 43 40 39 41 39 35 33 30 27
30 30 31 33 28 35 32 33 32 33 33 32 34 37 39 37 34 37 40 37 36 36 33 30 28 31 32 34 33 35 40 41 41 40 41 38 36 38 35 33 34 32 30
21 29 29 31 30 38 36 36 34 39 37 37 36 36 42 40 39 38 37 38 37 36 33 30 25 31 33 37 36 37 46 45 39 44 46 40 37 38 37 36 35 34 33

GFSMA_500_spd_111.txt.gz
Wind_Speed
35 36 34 34 35 36 37 38 39 37 34 32 28 23 26 27 27 27 24 26 22 25 24 25 29 31 26 26 32 34 30 30 29 27 27 24 20 18 15 14 12 11 10
39 39 36 36 37 37 37 40 40 40 38 35 33 29 28 27 28 28 27 26 27 26 26 23 29 30 27 27 30 38 30 30 31 29 27 27 23 21 18 17 15 14 12
44 38 39 39 37 38 38 40 42 42 41 40 37 33 32 31 31 29 29 29 28 29 30 23 27 30 27 25 27 34 33 32 34 33 29 31 27 25 22 20 18 17 15
44 45 43 41 40 40 40 41 42 42 41 43 41 36 35 34 34 33 30 30 31 30 32 29 26 29 29 25 23 32 36 39 35 34 32 33 31 28 25 23 20 18 18
45 48 44 41 42 42 43 43 45 46 46 44 44 43 40 38 37 38 36 35 33 32 34 32 28 27 31 27 27 29 37 43 35 35 33 34 34 31 28 27 23 20 20
44 44 46 44 42 42 43 44 46 50 49 46 47 46 44 43 38 39 41 40 37 33 35 35 31 28 31 34 32 32 28 36 38 37 38 34 34 34 31 29 26 24 21
43 40 40 44 47 46 46 47 49 54 53 47 47 45 45 44 39 42 42 41 40 38 36 34 36 32 31 34 35 33 31 37 42 39 38 34 34 35 33 32 30 27 24
42 42 43 45 47 48 49 51 53 59 59 55 52 47 45 43 43 46 47 44 41 38 36 35 35 33 32 34 38 35 33 33 45 41 40 36 34 32 33 34 32 30 27
43 45 47 50 49 53 55 57 60 67 82 75 58 52 45 43 44 48 47 42 40 39 37 36 36 34 32 35 40 41 37 36 40 43 39 38 35 33 33 34 34 33 30
46 49 51 54 58 57 62 62 64 62 70 56 60 54 47 51 50 49 51 43 42 41 39 37 37 35 33 34 39 43 38 38 51 44 42 38 36 34 33 33 34 33 32
49 50 51 55 61 64 65 66 71 72 66 61 66 47 49 51 47 52 45 42 45 47 40 38 37 34 32 33 36 38 42 46 51 48 44 43 37 35 33 34 32 33 32
48 52 57 62 65 66 64 63 73 72 72 71 71 61 54 49 46 48 49 41 41 46 44 38 35 32 30 32 32 32 40 51 54 47 47 41 39 35 34 34 33 31 32
53 57 59 63 57 55 56 65 70 62 65 68 68 52 48 51 53 59 49 43 41 44 45 40 32 30 29 28 32 26 36 41 46 46 45 43 38 35 36 36 35 33 34
54 56 54 52 53 57 58 70 62 46 52 56 60 53 52 56 59 55 52 45 41 43 42 39 34 27 27 27 28 23 32 30 32 35 44 43 39 37 39 36 34 35 34
51 46 49 48 49 51 40 33 34 40 45 45 44 51 52 49 48 49 50 50 42 43 39 38 33 28 27 29 29 26 26 33 33 35 38 40 38 41 40 37 35 34 35
44 44 46 45 43 38 38 37 31 36 39 42 45 39 43 45 43 47 48 49 49 45 37 37 33 30 29 29 31 29 27 30 41 43 44 45 42 42 45 41 40 40 39
42 42 39 36 31 33 35 30 32 33 38 41 42 47 44 41 40 41 36 46 51 42 38 36 35 33 29 29 30 35 35 35 33 39 47 50 46 47 45 47 45 44 41
39 38 36 31 33 35 32 33 33 34 36 35 36 40 44 42 35 44 42 42 45 40 35 35 36 34 28 30 33 35 38 34 33 34 36 43 33 37 42 41 45 41 44
41 37 35 34 34 38 37 37 34 34 34 31 34 36 35 33 50 43 43 38 43 39 34 33 36 37 32 31 31 35 37 36 38 40 41 42 40 39 42 43 40 43 45
38 35 37 34 33 36 38 43 34 30 33 35 36 32 33 40 38 40 44 42 42 41 34 34 35 35 34 35 35 35 39 39 37 40 42 43 45 46 45 42 43 48 48
35 38 33 37 34 32 33 34 36 34 32 34 31 26 22 28 36 43 35 38 41 38 35 33 35 36 36 37 39 39 41 43 42 41 38 40 42 41 40 40 44 46 50
33 37 32 30 28 30 36 30 26 28 28 30 27 28 30 26 31 38 39 39 37 37 37 39 39 38 39 39 42 43 44 42 45 44 41 38 36 38 41 43 39 45 48
29 33 32 35 27 26 26 32 26 29 30 28 30 33 33 33 35 37 35 36 38 38 39 39 40 40 40 41 43 44 43 43 41 39 38 40 38 38 38 41 37 41 44
27 31 31 30 32 22 27 34 30 36 31 31 34 32 29 32 33 34 35 39 41 40 39 39 40 40 38 39 42 46 44 38 39 40 44 42 41 44 42 40 38 41 42
22 22 25 25 24 23 25 32 34 40 38 36 37 33 32 37 36 34 36 37 42 41 41 40 41 39 36 39 36 34 37 38 39 42 41 40 40 43 43 41 41 42 41
20 19 19 27 28 25 29 28 34 32 39 37 38 36 38 38 40 39 40 39 40 39 42 42 41 38 37 36 36 38 35 35 36 37 40 45 43 42 42 41 40 39 37

GFSMA_500_spd_114.txt.gz
Wind_Speed
41 39 36 34 35 35 36 36 36 36 35 36 32 29 28 29 29 29 28 28 28 24 25 22 23 23 22 21 23 25 27 35 39 29 30 29 26 22 19 18 18 16 14
42 41 41 40 39 37 37 38 37 38 38 38 37 33 32 34 31 29 29 29 28 28 27 27 25 26 26 23 21 25 25 32 35 32 32 31 30 27 23 21 20 18 16
45 44 44 44 43 39 40 39 38 39 42 41 40 39 36 35 35 34 31 30 28 30 29 29 28 28 29 27 23 21 25 36 43 34 33 32 32 30 27 25 23 20 17
43 45 43 48 46 37 40 40 41 41 44 44 42 42 40 38 38 38 35 32 29 29 30 31 29 31 30 30 25 23 27 29 37 39 35 35 34 32 29 28 26 22 19
43 43 42 43 48 39 40 41 42 44 47 48 47 46 46 44 43 40 37 35 34 30 30 29 31 32 33 30 27 23 24 31 35 43 36 37 36 35 33 32 29 26 22
44 43 42 42 42 45 49 48 44 44 46 49 51 51 52 51 46 43 41 38 37 36 31 31 33 31 36 31 30 25 27 27 27 38 38 38 39 37 37 35 32 30 27
45 44 43 42 42 46 43 47 50 48 51 53 55 57 55 52 50 47 46 41 37 40 34 33 35 35 37 36 31 28 25 29 26 34 44 42 40 38 39 37 35 34 31
44 44 43 42 42 42 44 45 44 48 49 52 57 60 64 58 51 50 48 46 41 38 38 37 38 34 34 38 33 30 28 29 30 32 31 42 41 37 38 39 38 36 34
43 43 43 42 42 44 46 48 49 52 54 56 57 59 74 67 53 52 50 47 44 39 41 40 40 38 35 39 36 32 29 32 32 35 38 42 43 42 40 39 39 38 36
42 43 44 44 45 47 48 51 53 57 60 59 61 61 47 54 41 50 47 48 45 42 43 42 39 40 39 39 38 35 32 33 35 33 33 36 46 44 40 40 39 38 37
43 45 46 47 49 50 51 53 56 60 63 62 60 64 62 65 60 51 44 55 49 48 49 46 42 42 42 42 39 38 34 34 35 36 46 45 50 45 43 41 40 39 37
45 48 49 50 52 52 53 54 57 63 67 72 71 71 71 74 65 57 43 53 52 52 49 43 42 42 41 42 38 40 35 36 36 36 44 65 59 48 46 42 40 40 37
48 50 51 51 51 54 58 62 63 66 68 71 71 68 70 72 71 66 57 51 46 49 47 47 44 44 42 42 37 40 35 34 37 35 48 53 54 48 47 42 41 40 37
48 48 49 49 55 60 64 61 58 58 59 60 61 59 67 68 70 69 60 60 59 53 55 50 46 45 46 41 38 37 33 30 26 38 44 47 53 50 49 47 43 42 39
47 45 48 52 57 54 54 51 51 57 55 53 60 63 61 60 53 58 49 52 53 56 57 50 44 43 43 39 36 35 28 23 28 38 47 52 55 54 49 48 47 43 42
45 47 48 51 51 51 51 51 52 52 52 46 41 35 39 37 37 45 48 46 52 47 50 44 48 40 45 37 34 33 29 28 22 30 33 37 47 47 49 50 47 45 44
45 49 45 43 46 48 47 47 45 41 38 38 32 33 36 34 34 39 52 53 51 48 45 42 49 40 44 36 34 33 32 30 26 23 25 32 34 40 43 45 45 44 44
46 47 46 43 45 45 43 41 38 36 38 37 31 33 34 32 41 34 47 45 41 41 42 41 38 39 40 38 36 36 34 31 26 34 30 28 33 40 46 46 46 45 49
47 44 45 43 43 43 42 40 36 37 36 38 35 34 32 31 38 43 42 43 39 39 35 32 39 43 41 39 37 35 34 36 36 35 37 35 38 37 45 56 57 53 51
45 47 45 45 40 39 39 39 39 41 43 38 34 35 29 31 36 45 44 47 42 40 38 41 45 39 38 41 39 37 33 34 35 36 38 41 38 39 40 43 44 56 41
46 43 43 44 38 37 36 38 38 42 41 37 42 33 36 34 30 39 41 39 40 41 44 47 41 40 39 40 40 38 36 33 33 36 37 39 38 38 41 43 43 44 43
47 44 45 39 38 30 32 35 39 31 36 37 39 32 32 33 31 29 31 35 35 37 49 47 44 43 37 38 39 37 39 37 36 37 40 39 43 42 41 44 45 45 47
47 45 41 40 33 27 27 28 31 32 29 34 41 44 36 34 32 26 24 30 33 39 39 41 43 40 39 39 41 41 39 40 40 41 44 44 44 43 45 44 43 46 47
46 40 38 36 33 26 28 32 28 30 29 33 37 36 35 31 36 30 28 34 41 45 45 42 41 41 41 42 43 43 43 43 43 43 46 46 47 48 48 46 46 44 45
34 33 33 32 25 27 27 27 26 28 34 32 36 34 32 31 29 31 36 38 41 41 39 40 40 40 41 43 43 41 41 43 42 43 44 47 48 46 48 48 45 43 45
27 27 27 26 21 22 27 25 24 23 31 34 31 35 33 33 36 35 39 38 41 38 39 40 44 45 43 43 42 42 39 40 39 38 36 42 44 44 44 47 45 43 47

GFSMA_500_spd_117.txt.gz
Wind_Speed
40 40 40 41 41 39 37 36 34 35 34 34 35 35 34 32 29 28 29 30 29 28 25 23 22 22 23 23 24 24 22 18 11 30 32 30 29 28 25 22 21 19 17
42 42 41 43 43 42 42 39 39 39 37 36 36 37 37 36 35 32 31 32 32 32 29 26 26 24 25 25 26 25 22 18 16 24 34 32 33 30 29 25 23 22 20
44 44 45 45 46 51 48 48 45 45 41 39 38 40 40 40 41 39 34 35 36 35 33 31 30 27 26 24 26 26 25 19 18 17 36 36 35 34 33 29 26 24 23
46 47 48 48 49 48 55 56 54 44 43 42 41 42 42 45 45 45 41 40 39 38 38 35 32 30 26 25 26 27 27 22 22 24 28 45 39 38 36 33 29 26 25
46 45 45 45 43 48 53 58 35 40 49 43 44 45 46 47 48 50 47 43 41 41 40 40 36 31 27 26 26 28 29 27 22 23 26 39 40 40 38 36 33 30 27
48 45 45 43 43 44 48 40 46 44 45 42 39 50 47 47 51 52 52 50 42 40 42 43 40 36 29 27 26 29 29 31 26 21 24 35 42 40 38 39 37 33 30
50 48 46 44 44 43 42 42 44 41 45 41 47 50 44 54 52 55 56 52 45 42 44 44 42 40 31 28 28 31 32 32 29 26 25 23 36 42 42 41 38 35 33
51 50 48 46 44 44 43 43 44 44 45 46 47 48 50 55 53 51 63 57 43 45 45 45 43 40 37 29 27 30 33 32 32 27 25 22 27 37 42 41 40 40 36
52 50 49 47 45 45 45 45 45 46 48 47 48 51 52 52 56 55 54 55 53 46 48 46 41 42 36 32 31 31 33 33 35 32 30 27 25 29 43 42 41 43 40
51 50 49 47 45 45 46 47 48 48 49 50 51 53 55 55 55 56 51 54 54 51 45 43 45 43 39 34 34 35 36 36 35 38 34 32 29 33 33 44 45 44 42
50 50 49 48 47 46 47 49 51 52 52 54 55 56 58 59 58 56 52 48 47 32 37 53 47 48 42 36 35 39 37 39 39 39 38 35 34 37 32 48 45 44 43
49 50 49 48 47 48 51 52 54 55 55 56 59 61 62 62 63 62 61 60 61 68 58 43 53 57 44 43 40 40 40 39 43 40 41 41 39 41 36 36 48 48 46
48 49 49 49 49 51 51 53 56 55 55 55 58 62 66 67 69 71 70 67 66 68 59 55 50 61 54 49 43 39 40 40 42 46 42 42 40 40 43 44 55 50 47
47 47 48 48 48 51 53 55 56 55 58 57 60 66 71 73 73 73 66 63 61 67 61 59 54 54 52 47 44 42 39 41 44 45 44 45 41 48 57 55 56 53 49
48 47 47 50 52 53 54 54 54 58 58 61 64 63 61 62 61 62 61 57 63 53 54 54 59 57 55 56 51 44 41 42 43 43 43 38 39 43 57 56 58 57 52
52 52 49 49 50 52 52 50 52 58 62 60 59 57 57 61 61 58 57 60 58 56 54 53 59 54 55 56 51 42 40 42 42 40 39 37 36 43 52 57 57 56 55
45 47 48 48 50 49 49 51 51 56 56 58 52 55 56 55 52 45 44 38 41 44 36 40 53 52 50 55 50 41 43 43 41 40 38 29 44 39 47 57 56 58 57
46 46 45 46 49 47 43 47 53 55 56 54 52 51 46 43 41 37 35 37 39 39 44 49 52 51 47 47 43 44 41 44 39 38 34 33 30 41 45 52 52 52 50
41 44 44 45 47 47 44 44 47 53 56 51 47 42 41 38 36 38 38 40 42 41 48 55 50 48 50 46 38 39 43 39 41 36 35 37 28 29 29 35 43 42 42
40 43 45 48 46 43 46 50 51 54 49 47 43 40 39 41 38 40 37 37 38 40 44 55 50 48 42 39 36 37 39 38 39 37 36 40 33 33 32 29 37 38 44
41 44 47 47 46 43 45 46 52 47 45 42 42 42 40 40 35 39 39 37 37 37 38 40 44 43 37 40 40 37 41 41 39 40 38 42 39 42 41 40 43 42 42
40 43 45 46 46 44 45 45 45 41 42 37 37 44 46 44 48 36 36 36 39 43 38 40 42 42 33 45 42 42 39 41 41 40 38 37 39 39 41 40 40 40 40
40 39 41 44 43 44 44 44 38 39 35 32 34 33 37 35 42 33 36 33 42 41 40 41 41 40 48 41 45 43 42 41 41 43 43 41 40 39 40 41 41 42 41
44 43 44 45 47 47 46 46 37 37 30 27 29 32 33 39 28 32 33 33 34 33 27 29 32 37 43 49 50 46 45 44 42 42 44 44 43 43 43 43 44 44 46
44 47 49 47 46 46 43 40 36 32 31 29 31 32 37 35 41 36 31 38 33 38 34 38 40 47 51 49 47 46 42 43 44 43 43 44 45 46 48 48 47 47 47
24 28 27 30 31 34 34 34 36 34 28 30 35 36 39 43 41 36 40 41 38 38 40 41 45 49 49 46 44 40 42 44 45 45 45 46 46 47 48 50 49 48 49

GFSMA_500_spd_120.txt.gz
Wind_Speed
40 41 39 40 41 41 41 42 40 36 36 36 37 38 35 33 31 28 26 27 29 30 29 26 25 23 22 21 21 22 22 19 19 14 16 23 31 29 27 26 24 23 21
43 43 41 40 41 41 43 45 44 42 41 40 40 42 39 37 37 32 30 29 29 32 32 31 29 26 25 25 24 22 23 21 19 18 16 29 30 31 29 29 28 25 24
46 46 46 43 43 45 49 48 49 48 49 46 45 44 43 41 40 37 36 33 31 32 34 35 33 29 29 28 28 24 23 22 21 20 16 20 29 30 31 31 31 27 27
50 51 50 49 47 49 51 53 53 51 54 58 54 50 49 44 44 42 39 38 35 35 35 36 36 34 31 30 29 27 24 24 23 22 20 15 24 35 33 34 34 32 28
53 52 52 52 52 52 52 56 58 57 46 44 49 55 54 49 44 42 41 43 42 40 38 38 40 38 35 32 31 30 26 24 24 24 25 20 20 31 39 37 39 36 32
55 53 50 52 51 48 48 51 53 45 49 58 42 32 31 37 30 35 38 44 45 43 47 44 41 41 39 35 32 31 30 25 24 23 25 26 24 23 40 44 42 40 38
57 55 52 50 51 51 51 53 50 51 50 47 38 53 34 40 42 44 36 40 30 35 37 54 54 47 42 37 33 33 31 28 27 25 25 26 26 26 33 47 46 42 41
60 57 56 54 53 51 51 52 53 52 49 49 45 42 44 42 39 44 40 34 42 38 38 34 49 58 45 39 34 34 33 29 30 26 24 26 26 24 19 48 44 44 43
59 59 58 56 54 54 51 51 51 50 48 49 49 49 49 43 40 39 42 43 43 45 46 42 46 47 47 39 33 34 36 31 29 28 26 27 27 25 25 24 46 48 45
57 58 56 56 55 56 53 50 50 49 49 49 48 49 50 49 48 45 46 47 47 47 44 41 39 40 52 41 34 33 36 34 32 35 30 29 29 28 28 32 30 44 47
59 57 57 53 54 54 53 49 48 49 50 49 48 47 49 52 53 52 50 50 48 48 46 42 41 41 27 36 46 37 36 36 36 36 36 34 33 31 30 33 35 38 46
52 59 56 52 52 52 52 50 49 48 50 51 50 52 52 53 54 56 56 55 52 50 49 46 45 39 39 49 44 47 41 37 38 37 39 39 38 35 34 35 37 37 46
44 55 55 54 54 52 52 50 50 50 51 53 52 53 55 56 57 57 57 58 58 57 57 55 55 53 56 56 49 45 53 46 41 40 40 43 39 38 39 38 41 43 38
41 55 49 48 52 52 51 51 52 51 54 54 53 56 54 55 57 57 58 60 63 65 66 62 61 60 61 57 53 55 56 53 45 39 39 43 42 40 41 41 42 45 46
39 43 56 57 52 52 51 50 51 52 51 52 53 52 53 55 56 57 61 62 65 64 59 51 54 54 54 49 57 58 57 53 49 43 42 42 41 42 43 43 43 48 50
30 33 45 45 48 50 57 57 53 52 54 55 53 50 52 54 56 59 59 62 61 59 59 55 54 56 54 55 52 58 57 50 49 47 43 43 43 43 46 45 44 48 53
30 32 34 47 45 46 49 50 51 51 51 50 50 53 55 58 56 58 60 59 60 61 60 55 56 59 59 57 50 56 52 49 51 46 45 43 43 45 45 44 46 51 53
30 29 33 35 40 50 46 49 49 49 49 49 47 49 55 58 58 61 58 56 58 54 48 51 48 44 44 54 48 56 52 48 50 49 48 41 41 46 42 44 45 54 50
37 34 32 35 36 40 43 45 48 47 49 48 46 50 51 55 59 57 52 51 44 41 42 39 36 39 45 48 52 49 47 49 46 44 45 40 42 41 40 40 39 50 56
41 41 36 34 38 39 42 45 46 45 44 44 50 54 56 58 57 51 49 45 40 41 37 41 42 39 44 43 51 51 47 44 39 43 44 42 42 39 39 41 39 44 50
44 40 40 36 35 39 41 44 43 45 43 45 48 52 56 55 50 48 44 41 44 41 42 42 48 44 49 37 51 49 46 44 43 44 44 46 40 38 40 33 33 28 33
46 43 42 37 35 35 36 37 40 40 41 46 48 51 52 48 48 49 44 44 43 38 41 41 41 44 44 44 46 42 43 43 44 43 41 43 40 39 43 44 35 35 31
41 43 41 38 37 37 37 37 40 41 43 44 47 50 48 47 49 43 47 48 47 46 46 42 42 37 34 32 40 47 43 43 41 38 41 43 43 41 42 43 43 38 42
33 41 45 44 43 43 41 40 39 41 42 43 45 47 47 47 47 46 39 40 49 54 53 44 44 46 39 37 42 46 45 46 44 41 41 42 42 43 42 41 41 42 43
21 25 29 29 32 37 39 40 41 42 44 45 45 45 45 46 41 35 33 38 50 40 41 40 45 38 41 44 46 53 53 49 45 41 40 40 41 43 45 44 43 42 42
7 8 12 17 23 26 28 31 33 36 40 42 46 43 45 44 40 33 35 32 33 35 40 39 39 39 36 42 44 45 44 58 51 46 45 45 43 45 48 49 47 44 44

GFSMA_500_spd_126.txt.gz
Wind_Speed
42 42 43 43 42 42 43 44 45 43 42 41 37 36 35 36 35 36 36 35 34 31 29 30 28 28 26 25 26 25 24 21 18 15 16 14 17 13 16 26 26 27 26
48 46 47 47 46 44 45 45 44 45 46 44 42 40 38 37 38 39 40 41 40 39 33 32 31 29 27 26 26 28 27 26 24 19 18 18 17 16 13 20 27 27 28
54 52 51 52 51 49 49 50 50 50 50 48 45 44 44 43 44 42 44 45 47 46 37 35 36 30 28 29 27 28 29 29 29 27 23 21 20 18 16 24 28 30 31
57 57 56 56 56 55 53 50 52 50 57 51 47 48 49 49 49 47 47 48 50 51 45 39 38 34 28 26 27 29 29 28 30 31 29 25 24 21 18 19 26 28 31
61 62 60 57 58 60 59 55 55 53 50 48 46 51 53 52 51 56 51 53 50 50 49 49 44 33 28 25 21 26 33 27 29 31 31 30 28 25 23 21 21 30 28
61 64 68 67 64 63 64 64 59 56 55 54 53 52 56 49 53 57 60 46 34 40 38 41 45 31 26 28 22 22 27 31 30 32 33 33 31 29 27 27 24 25 31
65 63 66 70 72 68 65 67 66 62 60 59 59 55 60 56 50 47 40 46 58 44 38 38 35 26 26 23 20 21 25 24 33 36 36 35 34 32 30 29 28 27 26
61 63 64 67 68 73 70 69 70 67 64 61 62 62 58 55 52 50 47 35 26 26 29 25 23 23 22 27 27 26 25 27 26 32 37 38 36 36 33 31 33 30 28
60 61 65 67 69 71 73 69 69 70 66 63 62 64 61 56 51 49 46 41 38 35 32 33 28 27 29 35 34 28 27 25 27 29 38 37 40 39 38 34 34 33 30
57 52 50 51 53 62 71 68 67 69 69 64 62 63 62 59 53 49 45 45 42 41 38 38 36 34 37 37 37 32 29 30 30 31 34 40 38 42 41 39 36 36 33
57 47 46 45 43 45 53 62 65 65 67 67 64 61 62 60 56 52 47 45 44 44 44 42 40 40 40 39 40 36 33 33 34 33 32 42 40 40 43 40 37 34 35
50 49 41 38 38 39 46 51 51 61 66 65 60 62 61 59 55 54 51 49 48 47 46 46 43 41 40 40 41 39 36 36 38 36 36 39 46 45 43 43 42 39 39
54 40 36 37 39 41 43 43 48 51 61 61 61 56 59 54 57 53 51 51 49 49 47 45 46 45 43 43 41 40 37 38 41 40 39 38 37 45 45 45 44 44 42
41 28 28 23 22 24 27 39 47 52 50 50 57 60 55 59 58 52 51 51 50 50 48 48 47 44 45 44 42 42 43 43 45 45 45 48 47 48 46 53 50 48 47
34 30 21 17 17 23 26 27 32 45 46 47 51 55 56 56 53 52 51 50 50 50 48 49 48 46 47 46 45 44 46 48 50 52 53 54 57 58 59 49 55 50 48
25 33 30 24 23 25 28 25 26 33 38 47 46 47 46 51 52 49 49 49 49 50 49 46 44 43 43 42 47 47 47 51 53 58 59 61 62 63 64 60 58 57 55
28 28 30 28 25 29 31 30 29 32 33 38 46 44 45 46 48 48 48 50 48 50 51 46 46 46 47 49 50 51 51 51 55 59 60 61 65 70 70 67 61 62 56
34 28 23 20 24 25 27 28 24 30 32 32 37 41 48 51 49 48 47 47 47 48 50 52 47 48 47 49 49 52 56 56 57 60 62 63 65 64 62 62 61 61 57
22 21 23 26 27 29 31 30 27 27 30 30 34 41 39 37 41 47 49 49 55 58 56 52 47 46 47 49 49 50 54 54 59 62 63 65 66 64 63 61 58 58 59
26 29 31 33 33 34 34 31 29 26 30 32 33 35 36 40 40 42 45 46 47 47 48 48 48 49 49 50 52 51 52 54 54 53 51 59 63 65 66 64 61 57 62
31 33 35 38 37 39 37 33 33 31 30 31 34 36 38 37 39 42 46 48 46 44 47 48 48 48 50 51 49 49 50 50 52 51 51 50 59 60 61 64 59 59 57
36 36 36 37 36 35 35 34 34 36 37 34 35 36 38 41 42 44 46 47 48 48 48 48 51 50 48 49 49 50 48 47 49 46 40 41 49 55 54 53 53 59 58
31 31 32 32 34 34 32 32 32 33 35 36 36 36 38 39 42 44 47 49 48 49 50 52 51 52 46 47 48 52 53 47 47 47 48 42 41 45 52 54 54 55 53
17 16 17 18 20 19 18 20 20 23 25 31 34 36 37 39 41 42 45 48 49 51 54 53 52 51 47 47 52 53 53 48 54 54 52 49 43 45 47 50 51 52 52
12 10 10 9 10 10 10 9 11 14 15 20 22 24 26 29 35 42 45 47 49 52 53 54 55 54 49 48 53 53 51 51 52 54 48 47 45 41 48 48 48 47 48
6 5 7 10 13 9 10 9 9 10 9 9 10 11 13 17 23 28 30 39 45 49 51 52 52 53 48 49 54 55 53 54 55 53 49 45 46 50 52 54 50 50 49

GFSMA_500_spd_129.txt.gz
Wind_Speed
42 42 42 40 40 41 40 40 42 44 46 45 45 42 37 36 37 36 36 32 35 33 33 30 26 26 27 26 26 28 27 26 23 21 19 19 17 17 16 12 24 27 27
47 47 48 47 46 45 46 47 46 46 47 48 47 46 45 41 37 37 38 37 38 37 38 37 33 29 29 27 28 29 28 28 26 24 23 22 20 19 16 16 19 26 24
50 50 51 54 54 52 49 49 50 49 49 50 49 51 49 46 44 42 42 44 41 41 40 41 41 36 32 28 29 29 30 28 28 27 26 27 23 22 21 18 18 24 22
53 54 54 55 57 56 56 56 53 54 52 53 51 47 47 48 52 50 49 47 47 42 44 44 45 45 36 33 30 27 31 32 30 29 28 28 27 25 24 22 19 23 23
55 56 57 58 58 60 61 61 61 59 59 56 62 42 45 51 49 56 55 51 49 48 45 48 49 44 37 36 32 28 29 32 33 33 32 30 30 29 26 26 22 21 25
57 57 58 60 62 63 64 64 64 65 62 60 60 62 60 54 52 53 56 55 57 51 50 53 49 44 39 36 34 36 34 31 27 33 35 33 32 32 28 27 27 25 26
54 54 53 56 59 62 65 68 67 66 67 69 68 64 65 62 60 55 61 44 51 49 51 41 44 42 46 45 35 30 34 29 26 29 35 36 34 35 35 30 30 28 27
55 54 56 58 59 61 62 65 67 69 68 69 72 70 68 67 67 65 64 57 50 50 41 32 28 38 35 34 31 29 29 30 24 30 30 33 36 38 39 34 34 32 31
56 58 59 60 63 65 67 67 67 70 70 70 72 72 72 72 70 68 63 58 49 48 39 37 28 23 27 27 29 34 33 29 30 28 32 31 31 38 41 40 37 36 36
57 58 60 60 59 59 63 65 66 71 73 74 73 75 72 72 73 68 65 55 51 44 45 39 37 32 29 29 31 30 33 37 32 31 32 30 29 30 40 43 41 38 39
58 59 59 57 58 57 54 50 51 56 62 69 68 73 73 70 70 68 60 57 51 47 44 41 37 38 38 37 37 36 38 35 36 36 34 33 30 31 35 45 45 43 41
54 56 58 56 53 54 52 52 52 55 57 57 54 59 66 68 65 65 64 56 52 49 47 43 42 41 39 40 40 39 40 37 38 40 39 38 35 33 33 40 48 46 45
47 47 51 52 50 50 49 51 48 48 51 50 53 53 56 63 64 59 59 56 53 52 47 44 46 44 44 42 42 41 41 39 39 41 42 41 41 39 37 37 44 49 46
52 51 53 50 50 52 44 43 44 46 44 49 49 49 54 59 62 59 58 55 52 49 51 49 47 46 45 45 43 43 42 42 42 43 45 46 44 43 42 41 43 48 51
41 39 42 39 34 36 32 30 28 27 32 37 40 47 51 56 58 60 56 51 53 53 51 50 50 48 46 45 44 46 47 46 45 46 47 50 50 48 47 44 44 45 52
33 31 30 33 33 29 30 27 27 25 32 35 37 38 44 48 53 53 51 53 53 50 51 52 50 49 48 48 49 49 50 48 46 47 49 51 52 50 51 51 53 56 58
28 32 24 22 29 36 34 30 28 32 36 35 37 37 37 43 48 49 47 47 51 50 53 48 49 51 51 50 50 50 50 49 48 51 52 51 53 54 54 56 59 60 62
32 31 32 28 32 35 31 29 29 28 30 34 39 37 35 38 45 47 47 46 46 47 47 49 47 49 50 50 51 49 50 49 49 53 55 56 55 56 55 57 61 66 68
29 30 31 32 29 28 27 29 30 31 31 31 35 38 33 33 34 43 48 49 47 47 47 49 45 47 48 49 51 53 53 53 54 53 53 51 54 56 58 58 61 64 66
29 27 28 28 27 29 30 32 33 35 36 35 34 34 36 33 33 38 45 51 55 49 50 53 51 52 51 52 52 54 54 54 52 53 54 51 51 55 58 61 62 64 67
35 33 33 32 33 34 34 37 38 38 38 38 39 37 36 37 36 37 40 44 45 53 52 50 55 53 53 54 55 54 54 53 50 52 54 54 54 57 58 58 58 60 65
32 33 33 33 36 36 37 38 37 38 37 37 38 39 39 39 40 40 41 42 44 46 43 47 50 51 54 56 56 56 55 53 50 52 55 55 56 54 55 56 55 59 61
25 26 28 27 26 29 28 31 31 34 38 38 38 38 38 38 41 44 45 44 44 46 48 49 52 53 56 54 54 56 56 54 49 50 57 54 53 51 53 49 46 47 51
16 14 15 16 16 17 17 18 19 22 24 27 31 34 37 38 40 43 46 47 47 46 47 49 51 54 56 58 59 57 55 54 53 52 56 52 52 52 52 49 51 47 46
17 13 12 12 12 13 15 14 15 15 16 16 17 20 23 21 22 26 31 36 45 48 48 49 50 53 56 56 56 58 58 57 57 56 56 53 55 54 49 52 53 53 52
9 7 7 9 12 14 13 14 14 14 13 14 15 16 16 16 16 17 17 20 23 28 36 47 51 52 53 55 56 57 58 59 58 58 58 55 57 58 54 50 53 53 51

GFSMA_500_spd_132.txt.gz
Wind_Speed
44 43 42 42 41 39 38 39 40 39 39 38 39 37 36 35 36 38 37 40 38 36 32 30 28 25 25 26 26 26 25 25 24 24 22 20 19 17 14 14 12 23 26
49 48 47 47 47 46 44 42 42 42 43 41 43 39 40 40 40 40 41 37 37 37 38 34 31 29 28 29 29 28 27 26 25 26 26 23 23 21 19 16 12 16 25
54 52 52 50 50 48 48 48 46 46 44 43 42 44 40 44 48 42 42 44 37 37 38 39 39 35 34 33 29 31 30 29 27 27 28 27 25 25 24 22 15 15 17
54 51 50 52 52 53 53 53 53 53 51 49 49 59 38 43 60 53 41 43 40 41 42 43 44 43 39 38 36 32 33 32 32 29 30 31 29 28 27 27 23 16 17
54 56 58 56 56 57 57 57 56 55 54 55 55 55 59 58 60 46 48 38 44 44 45 46 47 47 46 42 40 35 34 35 35 33 32 34 34 32 30 28 28 23 19
56 58 60 61 62 62 62 62 61 61 60 59 59 59 63 62 62 58 51 57 53 54 48 56 50 51 51 43 47 49 33 35 38 37 36 37 36 35 33 30 29 28 23
59 60 61 61 61 62 63 65 63 63 65 67 67 64 65 65 65 61 62 63 64 47 47 36 46 45 36 43 43 45 37 30 36 41 41 36 38 38 37 35 32 31 28
62 60 59 58 58 58 58 60 63 64 65 65 67 69 68 69 68 65 66 69 66 64 62 61 51 43 42 34 39 38 46 49 41 45 39 34 33 37 36 38 37 34 33
58 58 58 59 59 59 60 60 61 63 65 66 67 68 70 71 69 70 70 71 69 64 60 54 48 37 37 36 33 34 42 43 44 45 38 35 35 33 31 32 39 40 37
57 58 58 60 59 62 65 63 64 66 66 67 68 71 74 74 73 69 71 73 70 65 62 54 44 40 37 40 30 29 36 39 38 42 39 33 33 36 34 31 30 37 42
50 54 55 57 59 64 66 67 65 62 60 57 62 61 64 67 73 76 70 69 70 63 59 54 47 43 42 40 35 30 32 35 36 43 36 35 34 36 34 34 30 29 40
49 51 53 53 55 56 60 61 63 61 59 56 52 52 57 59 58 63 68 70 70 60 59 54 48 44 43 42 36 39 40 39 37 37 40 39 37 37 35 36 35 28 32
47 50 51 52 50 51 56 57 56 61 55 53 51 55 55 56 57 56 58 59 62 59 53 51 48 47 44 45 43 42 43 43 45 43 41 41 41 40 39 38 37 35 34
45 49 53 55 52 48 47 48 52 47 48 46 47 48 50 51 54 57 56 55 53 50 50 48 49 49 47 38 53 48 45 47 49 48 46 43 43 44 42 42 42 40 41
43 45 47 48 51 54 61 50 44 47 49 44 40 35 38 42 42 44 48 52 52 48 46 47 47 52 52 54 51 50 49 47 49 49 48 47 47 47 46 45 47 44 44
42 39 44 45 39 37 42 38 34 36 46 40 35 35 35 35 33 38 41 46 49 49 42 46 50 53 52 55 55 56 52 50 50 50 51 49 49 49 49 48 49 47 47
43 38 39 43 38 33 32 32 32 32 32 33 35 34 35 35 32 33 37 40 47 50 47 45 49 48 51 53 53 54 55 53 52 51 50 51 51 52 54 53 52 51 50
41 39 38 34 42 34 26 32 35 36 34 35 34 34 33 32 37 35 33 35 42 49 47 45 47 49 52 55 54 56 56 55 55 54 55 55 55 57 57 56 56 56 54
38 39 38 36 30 31 29 27 34 41 34 36 37 34 34 32 33 38 34 33 32 45 44 42 44 49 51 51 54 55 56 57 58 58 57 57 59 57 57 57 58 59 57
35 33 35 37 33 28 28 32 32 36 35 35 36 37 38 35 35 37 39 34 32 30 40 49 48 47 49 53 57 54 53 55 56 59 59 59 58 58 60 59 60 61 61
32 30 30 31 33 34 29 30 29 31 35 36 39 39 38 38 38 39 41 39 35 36 38 38 35 54 54 52 53 55 57 54 56 59 60 60 61 62 63 62 60 61 62
27 25 24 25 25 26 29 30 32 32 34 35 36 36 37 37 36 38 41 41 41 39 38 40 43 45 49 58 58 52 56 60 57 61 62 59 62 62 61 60 63 63 64
16 15 16 17 17 18 20 22 25 26 27 30 32 33 34 34 34 35 36 37 39 42 43 40 41 44 46 44 56 66 62 62 63 66 64 64 64 63 63 63 60 62 62
14 19 13 13 13 13 13 15 17 19 20 20 21 23 26 26 27 28 30 32 35 39 42 43 39 41 45 46 50 51 52 54 57 58 60 62 67 64 64 61 59 61 59
15 15 13 11 10 10 12 14 16 16 17 17 18 20 19 19 21 21 21 22 22 23 26 28 28 32 36 41 46 51 53 56 58 58 59 59 62 61 60 60 58 59 59
11 7 6 7 9 11 12 14 14 13 14 16 16 16 17 18 18 21 21 22 23 24 25 26 28 28 28 29 34 40 46 52 56 60 60 62 64 61 58 59 58 60 61

GFSMA_500_spd_135.txt.gz
Wind_Speed
46 48 44 43 45 43 40 44 44 42 40 38 37 41 43 38 37 36 35 34 33 31 32 33 33 31 30 25 26 26 23 24 25 25 22 21 20 19 17 14 13 13 15
53 52 52 52 52 52 50 49 48 46 44 44 44 42 39 41 38 42 38 39 36 35 33 35 36 33 33 32 29 29 28 27 28 28 26 24 24 22 22 20 16 14 11
56 54 53 57 57 54 53 51 48 47 46 45 45 48 46 44 45 50 46 49 41 41 36 35 35 36 37 37 35 33 31 31 32 32 30 29 26 26 25 25 22 18 17
51 52 52 52 51 52 53 53 52 50 50 51 51 51 51 53 52 52 55 44 43 39 47 31 33 38 42 39 40 37 35 34 33 35 34 34 30 29 28 28 27 24 20
51 52 54 56 55 54 55 55 55 56 56 58 60 57 56 57 59 57 57 56 53 37 45 50 53 48 46 42 43 41 40 38 37 36 39 38 37 33 33 31 30 29 26
52 55 57 57 59 60 59 59 59 60 61 61 61 63 60 60 62 60 61 54 54 49 54 56 55 48 52 48 34 44 49 42 38 42 40 45 40 38 36 36 33 32 30
57 59 58 59 61 63 63 65 62 62 65 64 65 66 66 64 64 66 65 61 58 58 63 59 53 54 47 56 52 49 32 36 43 47 42 46 46 42 41 40 39 36 32
61 60 59 59 60 60 62 64 64 64 64 65 66 66 66 67 67 66 67 65 64 64 67 63 63 60 56 44 42 37 49 38 34 47 45 43 47 45 42 39 40 39 36
55 54 55 57 59 60 61 62 63 64 65 65 67 67 66 68 66 65 66 64 66 67 70 69 67 62 58 49 44 38 36 46 36 42 43 41 45 48 46 39 37 40 39
52 56 57 60 62 64 65 64 65 66 67 67 69 72 71 68 70 66 65 67 68 69 68 68 67 66 58 49 43 36 40 40 36 38 47 46 47 50 49 43 37 36 35
54 49 49 49 51 53 57 61 64 66 66 65 66 69 68 69 71 73 68 63 62 66 68 66 61 56 56 48 44 41 43 41 35 39 49 51 46 49 51 46 40 38 34
47 50 48 48 49 52 51 56 60 60 58 59 61 64 64 64 60 59 61 61 62 54 54 54 53 49 49 50 48 47 46 44 40 43 38 48 44 49 46 42 41 37 36
46 47 49 49 51 51 53 51 51 52 53 54 52 52 53 56 56 56 58 52 46 45 49 46 45 45 45 52 50 50 47 47 46 44 42 40 46 53 50 43 38 37 37
49 48 50 51 52 53 54 54 50 51 50 43 45 49 47 51 52 50 48 50 46 48 48 48 44 44 44 48 52 50 48 49 51 51 50 47 41 52 48 44 41 39 40
49 48 52 52 50 50 51 53 45 45 50 52 52 51 49 41 41 43 42 41 37 31 33 43 45 44 49 49 52 53 52 33 39 61 50 52 48 46 53 46 46 44 42
46 47 48 46 47 46 47 47 45 41 42 42 42 40 40 36 37 36 34 36 35 32 28 30 41 44 49 49 51 57 60 54 48 38 47 50 51 52 49 48 49 47 47
42 44 45 44 42 44 44 42 38 39 39 36 35 35 33 34 34 32 35 35 37 33 28 30 34 42 45 48 50 58 63 62 63 49 52 55 56 54 56 54 55 55 54
45 45 44 42 39 39 38 37 33 38 35 31 31 32 31 35 36 37 33 36 34 31 30 30 31 38 41 49 53 56 61 61 59 63 60 58 59 60 57 57 55 57 58
47 45 44 40 35 33 31 35 27 28 23 27 32 34 36 36 37 36 37 35 34 32 36 30 27 34 40 44 51 55 59 62 59 63 64 60 61 62 63 62 60 60 61
43 43 37 33 28 28 25 28 26 20 18 21 35 36 36 37 39 41 40 37 36 34 35 35 29 23 34 39 47 51 56 55 54 57 62 62 62 64 62 64 67 63 62
40 34 26 22 21 20 19 18 21 21 19 17 20 23 28 33 37 41 41 41 37 34 36 36 34 28 27 27 36 51 59 60 58 59 59 61 64 65 67 67 68 68 68
32 23 17 13 14 14 13 11 12 15 17 19 19 22 23 27 30 33 34 35 37 35 33 34 35 34 33 32 33 33 49 57 57 65 60 59 62 64 65 67 68 69 71
19 14 12 14 13 12 11 11 12 13 14 15 18 20 21 21 22 24 26 27 29 31 34 33 32 34 35 35 34 37 42 36 59 59 58 67 65 61 62 63 66 67 67
12 12 14 12 9 11 11 12 13 15 15 15 15 15 17 18 19 19 19 21 22 23 25 26 26 27 31 33 37 37 42 42 43 50 64 64 60 65 71 65 63 67 68
13 11 9 9 10 7 9 11 13 13 15 17 16 16 17 17 16 16 17 16 17 18 20 21 23 22 22 24 29 36 38 41 45 46 51 57 70 68 68 64 69 73 72
11 10 6 4 7 9 10 11 11 11 11 11 12 14 15 15 16 17 19 19 20 20 20 21 22 22 23 23 24 24 28 31 36 43 47 51 54 53 64 81 74 70 72